M I D A S
Marine Information and Data Acquisition System
Tripno 2222 of the Zeeleeuw from 2011-12-12 08:06:00 to 2011-12-12 15:59:30
Back to CruiseResearch ActivitiesStationsMapUnderway DataData graphs

EquipmentUnitsComment
TimeDGPSUTC
LatitudeDGPSDM.mWGS84
LongitudeDGPSDM.mWGS84
TemperatureSBE03/SBE38deg celciusITS90
ConductivitySBE21S/mITS90
SalinitySBE21 Practical Salinity Units
ChlorophylAChelsea fluorimeterg/lCalibrated in Aceton
Missing or incorrect values are displayed as -999
Sea surface data collected by the RV Zeeleeuw from 2011-12-12 08:09:47 to 2011-12-12 16:17:40
                                                                                    Next 1000 lines
Time Latitude Longitude Temperature Conductivity Salinity ChlorophylA
2011-12-12 08:09:57 51°15.472 2°53.908 13.7032 0.105737 0.57242 -3.020363
2011-12-12 08:10:02 51°15.484 2°53.891 13.722 0.105737 0.57242 -3.020363
2011-12-12 08:10:07 51°15.495 2°53.873 13.7073 0.105737 0.57243 -3.020363
2011-12-12 08:10:12 51°15.504 2°53.86 13.7379 0.105737 0.57243 -3.020363
2011-12-12 08:10:18 51°15.518 2°53.84 13.7368 0.105737 0.57244 -3.020363
2011-12-12 08:10:23 51°15.53 2°53.822 13.736 0.105737 0.57244 -3.020363
2011-12-12 08:10:28 51°15.542 2°53.804 13.7146 0.105737 0.57244 -3.020363
2011-12-12 08:10:32 51°15.551 2°53.791 13.7333 0.105737 0.57244 -3.020363
2011-12-12 08:10:38 51°15.565 2°53.771 13.7182 0.105737 0.57244 -3.020363
2011-12-12 08:10:43 51°15.577 2°53.755 13.7331 0.105737 0.57244 -3.020363
2011-12-12 08:10:48 51°15.589 2°53.738 13.7423 0.105737 0.57244 -3.020363
2011-12-12 08:10:52 51°15.598 2°53.724 13.7393 0.105737 0.57244 -3.020363
2011-12-12 08:10:58 51°15.612 2°53.704 13.7292 0.105737 0.57245 -3.020363
2011-12-12 08:11:03 51°15.624 2°53.688 13.743 0.105737 0.57245 -3.020363
2011-12-12 08:11:08 51°15.636 2°53.672 13.7265 0.105737 0.57246 -3.020363
2011-12-12 08:11:12 51°15.646 2°53.66 13.7359 0.105737 0.57246 -3.020363
2011-12-12 08:11:18 51°15.66 2°53.641 13.7411 0.105737 0.57246 -3.020363
2011-12-12 08:11:23 51°15.672 2°53.626 13.7505 0.105737 0.57246 -3.020363
2011-12-12 08:11:28 51°15.685 2°53.611 13.7538 0.105737 0.57246 -3.020363
2011-12-12 08:11:32 51°15.695 2°53.599 13.7233 0.105737 0.57248 -3.020363
2011-12-12 08:11:38 51°15.71 2°53.581 13.7204 0.105737 0.572489 -3.020363
2011-12-12 08:11:43 51°15.723 2°53.566 13.7556 0.105737 0.572489 -3.020363
2011-12-12 08:11:48 51°15.735 2°53.552 13.7267 0.105737 0.572499 -3.020363
2011-12-12 08:11:52 51°15.744 2°53.541 13.7414 0.105737 0.572499 -3.020363
2011-12-12 08:11:58 51°15.759 2°53.524 13.7332 0.105737 0.572499 -3.020363
2011-12-12 08:12:03 51°15.772 2°53.511 13.7304 0.105737 0.572489 -3.020363
2011-12-12 08:12:08 51°15.784 2°53.497 13.7491 0.105737 0.57248 -3.020363
2011-12-12 08:12:12 51°15.795 2°53.486 13.7528 0.105737 0.57248 -3.020363
2011-12-12 08:12:18 51°15.81 2°53.469 13.7503 0.105737 0.572489 -3.020363
2011-12-12 08:12:23 51°15.823 2°53.456 13.7225 0.105737 0.572489 -3.020363
2011-12-12 08:12:28 51°15.836 2°53.442 13.7414 0.105737 0.572489 -3.020363
2011-12-12 08:12:32 51°15.846 2°53.431 13.749 0.105737 0.572499 -3.020363
2011-12-12 08:12:38 51°15.862 2°53.414 13.7597 0.105737 0.572499 -3.020363
2011-12-12 08:12:43 51°15.875 2°53.4 13.7513 0.105737 0.572509 -3.020363
2011-12-12 08:12:48 51°15.887 2°53.386 13.7496 0.105737 0.572509 -3.020363
2011-12-12 08:12:52 51°15.897 2°53.375 13.7394 0.105737 0.572509 -3.020363
2011-12-12 08:12:58 51°15.912 2°53.358 13.7325 0.105737 0.572519 -3.020363
2011-12-12 08:13:03 51°15.925 2°53.343 13.7488 0.105737 0.572519 -3.020363
2011-12-12 08:13:08 51°15.938 2°53.328 13.7314 0.105737 0.572519 -3.020363
2011-12-12 08:13:12 51°15.948 2°53.317 13.7654 0.105737 0.572519 -3.020363
2011-12-12 08:13:18 51°15.964 2°53.301 13.7504 0.105737 0.572519 -3.020363
2011-12-12 08:13:23 51°15.977 2°53.287 13.755 0.105737 0.572519 -3.020363
2011-12-12 08:13:28 51°15.99 2°53.274 13.7409 0.105737 0.572529 -3.020363
2011-12-12 08:13:32 51°16.001 2°53.264 13.7549 0.105737 0.572529 -3.020363
2011-12-12 08:13:38 51°16.017 2°53.249 13.7598 0.105737 0.572539 -3.020363
2011-12-12 08:13:43 51°16.03 2°53.237 13.7696 0.105737 0.572539 -3.020363
2011-12-12 08:13:48 51°16.044 2°53.224 13.7747 0.105737 0.572549 -3.020363
2011-12-12 08:13:52 51°16.054 2°53.216 13.7409 0.105737 0.572549 -3.020363
2011-12-12 08:13:58 51°16.07 2°53.204 13.7632 0.105737 0.572569 -3.020363
2011-12-12 08:14:03 51°16.084 2°53.193 13.7662 0.105737 0.572569 -3.020363
2011-12-12 08:14:08 51°16.097 2°53.182 13.7496 0.105737 0.572569 -3.020363
2011-12-12 08:14:13 51°16.11 2°53.171 13.7666 0.105737 0.572549 -3.020363
2011-12-12 08:14:18 51°16.124 2°53.16 13.7689 0.105737 0.572549 -3.020363
2011-12-12 08:14:23 51°16.137 2°53.148 13.7525 0.105737 0.572549 -3.020363
2011-12-12 08:14:28 51°16.15 2°53.136 13.7509 0.105737 0.572559 -3.020363
2011-12-12 08:14:32 51°16.16 2°53.126 13.7665 0.105737 0.572549 -3.020363
2011-12-12 08:14:38 51°16.176 2°53.113 13.771 0.105737 0.572569 -3.020363
2011-12-12 08:14:43 51°16.188 2°53.1 13.7619 0.105737 0.572559 -3.020363
2011-12-12 08:14:48 51°16.201 2°53.088 13.7488 0.105737 0.572569 -3.020363
2011-12-12 08:14:52 51°16.212 2°53.078 13.7738 0.105737 0.572569 -3.020363
2011-12-12 08:14:58 51°16.227 2°53.062 13.7659 0.105737 0.572569 -3.020363
2011-12-12 08:15:03 51°16.24 2°53.05 13.768 0.105635 0.571999 -3.020363
2011-12-12 08:15:08 51°16.254 2°53.039 13.7761 0.105737 0.572599 -3.020363
2011-12-12 08:15:12 51°16.264 2°53.029 13.7716 0.105737 0.572589 -3.020363
2011-12-12 08:15:18 51°16.28 2°53.015 13.7755 0.105737 0.572589 -3.020363
2011-12-12 08:15:23 51°16.293 2°53.003 13.7843 0.105737 0.572589 -3.020363
2011-12-12 08:15:28 51°16.306 2°52.992 13.7588 0.105737 0.572618 -3.020363
2011-12-12 08:15:32 51°16.316 2°52.983 13.7714 0.105737 0.572618 -3.020363
2011-12-12 08:15:38 51°16.332 2°52.971 13.7877 0.105635 0.572039 -3.020363
2011-12-12 08:15:43 51°16.345 2°52.959 13.7908 0.105737 0.572628 -3.020363
2011-12-12 08:15:48 51°16.358 2°52.948 13.7701 0.105737 0.572628 -3.020363
2011-12-12 08:15:52 51°16.368 2°52.938 13.7734 0.105737 0.572628 -3.020363
2011-12-12 08:15:58 51°16.383 2°52.924 13.7764 0.105737 0.572618 -3.020363
2011-12-12 08:16:03 51°16.396 2°52.912 13.7713 0.105635 0.572029 -3.020363
2011-12-12 08:16:08 51°16.409 2°52.9 13.7876 0.105737 0.572608 -3.020363
2011-12-12 08:16:12 51°16.42 2°52.891 13.7715 0.105635 0.572039 -3.020363
2011-12-12 08:16:18 51°16.436 2°52.877 13.7838 0.105737 0.572618 -3.020363
2011-12-12 08:16:23 51°16.449 2°52.865 13.7783 0.105737 0.572618 -3.020363
2011-12-12 08:16:28 51°16.462 2°52.853 13.7748 0.105737 0.572618 -3.020363
2011-12-12 08:16:32 51°16.472 2°52.844 13.7851 0.105737 0.572608 -3.020363
2011-12-12 08:16:38 51°16.489 2°52.832 13.782 0.105635 0.572039 -3.020363
2011-12-12 08:16:43 51°16.503 2°52.821 13.7946 0.105635 0.572049 -3.020363
2011-12-12 08:16:48 51°16.517 2°52.812 13.7826 0.105737 0.572648 -3.020363
2011-12-12 08:16:52 51°16.528 2°52.805 13.7847 0.105737 0.572648 -3.020363
2011-12-12 08:16:58 51°16.545 2°52.794 13.7874 0.105635 0.572079 -3.020363
2011-12-12 08:17:03 51°16.559 2°52.785 13.7754 0.105737 0.572648 -3.020363
2011-12-12 08:17:08 51°16.573 2°52.777 13.8005 0.105635 0.572088 -3.020363
2011-12-12 08:17:13 51°16.587 2°52.77 13.7969 0.105737 0.572678 -3.020363
2011-12-12 08:17:18 51°16.601 2°52.763 13.7959 0.105737 0.572678 -3.020363
2011-12-12 08:17:23 51°16.615 2°52.755 13.8001 0.105737 0.572678 -3.020363
2011-12-12 08:17:28 51°16.629 2°52.748 13.8011 0.105737 0.572668 -3.020363
2011-12-12 08:17:32 51°16.641 2°52.742 13.8105 0.105737 0.572668 -3.020363
2011-12-12 08:17:38 51°16.658 2°52.733 13.7869 0.105635 0.572088 -3.020363
2011-12-12 08:17:43 51°16.672 2°52.725 13.7962 0.105635 0.572108 -3.020363
2011-12-12 08:17:48 51°16.686 2°52.717 13.8015 0.105737 0.572688 -3.020363
2011-12-12 08:17:52 51°16.697 2°52.711 13.7904 0.105737 0.572688 -3.020363
2011-12-12 08:17:58 51°16.714 2°52.701 13.8031 0.105737 0.572688 -3.020363
2011-12-12 08:18:03 51°16.728 2°52.693 13.7938 0.105635 0.572108 -3.020363
2011-12-12 08:18:08 51°16.742 2°52.686 13.8094 0.105635 0.572118 -3.020363
2011-12-12 08:18:12 51°16.753 2°52.681 13.8042 0.105737 0.572698 -3.020363
2011-12-12 08:18:18 51°16.769 2°52.671 13.8008 0.105635 0.572128 -3.020363
2011-12-12 08:18:23 51°16.783 2°52.664 13.8075 0.105635 0.572128 -3.020363
2011-12-12 08:18:28 51°16.797 2°52.656 13.8115 0.105635 0.572128 -3.020363
2011-12-12 08:18:32 51°16.808 2°52.65 13.8076 0.105737 0.572718 -3.020363
2011-12-12 08:18:38 51°16.825 2°52.641 13.8112 0.105737 0.572727 -3.020363
2011-12-12 08:18:43 51°16.838 2°52.634 13.8062 0.105635 0.572158 -3.020363
2011-12-12 08:18:48 51°16.852 2°52.627 13.8111 0.105635 0.572148 -3.020363
2011-12-12 08:18:52 51°16.863 2°52.62 13.8216 0.105635 0.572148 -3.020363
2011-12-12 08:18:58 51°16.879 2°52.611 13.8084 0.105635 0.572158 -3.020363
2011-12-12 08:19:03 51°16.893 2°52.602 13.8123 0.105635 0.572148 -3.020363
2011-12-12 08:19:08 51°16.907 2°52.594 13.8096 0.105635 0.572148 -3.020363
2011-12-12 08:19:12 51°16.918 2°52.588 13.8299 0.105737 0.572737 -3.020363
2011-12-12 08:19:18 51°16.935 2°52.578 13.8242 0.105635 0.572168 -3.020363
2011-12-12 08:19:23 51°16.948 2°52.571 13.8138 0.105635 0.572168 -3.020363
2011-12-12 08:19:28 51°16.961 2°52.562 13.8253 0.105635 0.572178 -3.020363
2011-12-12 08:19:32 51°16.972 2°52.555 13.8184 0.105737 0.572757 -3.020363
2011-12-12 08:19:38 51°16.988 2°52.544 13.8267 0.105635 0.572168 -3.020363
2011-12-12 08:19:43 51°17.001 2°52.537 13.817 0.105635 0.572178 -3.020363
2011-12-12 08:19:48 51°17.015 2°52.53 13.827 0.105635 0.572178 -3.020363
2011-12-12 08:19:52 51°17.025 2°52.524 13.8325 0.105635 0.572178 -3.020363
2011-12-12 08:19:58 51°17.042 2°52.514 13.8206 0.105635 0.572178 -3.020363
2011-12-12 08:20:03 51°17.055 2°52.506 13.8239 0.105635 0.572188 -3.020363
2011-12-12 08:20:08 51°17.068 2°52.499 13.8286 0.105635 0.572188 -3.020363
2011-12-12 08:20:12 51°17.079 2°52.493 13.8237 0.105635 0.572188 -3.020363
2011-12-12 08:20:17 51°17.092 2°52.484 13.8252 0.105635 0.572188 -3.020363
2011-12-12 08:20:23 51°17.108 2°52.474 13.8366 0.105635 0.572188 -3.020363
2011-12-12 08:20:28 51°17.121 2°52.466 13.8356 0.105635 0.572188 -3.020363
2011-12-12 08:20:32 51°17.132 2°52.46 13.8312 0.105635 0.572197 -3.020363
2011-12-12 08:20:37 51°17.146 2°52.453 13.8364 0.105635 0.572217 -3.020363
2011-12-12 08:20:43 51°17.163 2°52.444 13.8451 0.105635 0.572217 -3.020363
2011-12-12 08:20:48 51°17.176 2°52.437 13.8327 0.105635 0.572237 -3.020363
2011-12-12 08:20:52 51°17.187 2°52.431 13.8381 0.105635 0.572237 -3.020363
2011-12-12 08:20:58 51°17.203 2°52.422 13.833 0.105635 0.572237 -3.020363
2011-12-12 08:21:03 51°17.217 2°52.415 13.8439 0.105635 0.572227 -3.020363
2011-12-12 08:21:08 51°17.231 2°52.407 13.8448 0.105635 0.572247 -3.020363
2011-12-12 08:21:12 51°17.241 2°52.401 13.8392 0.105635 0.572247 -3.020363
2011-12-12 08:21:18 51°17.257 2°52.392 13.8467 0.105635 0.572247 -3.020363
2011-12-12 08:21:23 51°17.271 2°52.384 13.839 0.105635 0.572247 -3.020363
2011-12-12 08:21:28 51°17.284 2°52.377 13.8484 0.105635 0.572247 -3.020363
2011-12-12 08:21:32 51°17.295 2°52.371 13.8558 0.105635 0.572267 -3.020363
2011-12-12 08:21:38 51°17.311 2°52.362 13.8452 0.105635 0.572267 -3.020363
2011-12-12 08:21:43 51°17.324 2°52.353 13.8451 0.105635 0.572277 -3.020363
2011-12-12 08:21:48 51°17.337 2°52.344 13.8444 0.105635 0.572287 -3.020363
2011-12-12 08:21:52 51°17.348 2°52.336 13.8467 0.105635 0.572287 -3.020363
2011-12-12 08:21:58 51°17.363 2°52.324 13.8523 0.105635 0.572287 -3.020363
2011-12-12 08:22:03 51°17.377 2°52.313 13.8541 0.105635 0.572287 -3.020363
2011-12-12 08:22:08 51°17.39 2°52.303 13.8545 0.105635 0.572287 -3.020363
2011-12-12 08:22:12 51°17.4 2°52.294 13.8532 0.105635 0.572287 -3.020363
2011-12-12 08:22:18 51°17.415 2°52.28 13.8586 0.105635 0.572287 -3.020363
2011-12-12 08:22:23 51°17.428 2°52.268 13.8561 0.105635 0.572287 -3.020363
2011-12-12 08:22:28 51°17.441 2°52.257 13.8557 0.105635 0.572297 -3.020363
2011-12-12 08:22:32 51°17.451 2°52.247 13.8621 0.105635 0.572297 -3.020363
2011-12-12 08:22:38 51°17.466 2°52.233 13.859 0.105635 0.572297 -3.020363
2011-12-12 08:22:43 51°17.478 2°52.221 13.8651 0.105635 0.572307 -3.020363
2011-12-12 08:22:48 51°17.491 2°52.21 13.8639 0.105635 0.572316 -3.020363
2011-12-12 08:22:53 51°17.503 2°52.2 13.8604 0.105635 0.572316 -3.020363
2011-12-12 08:22:59 51°17.518 2°52.188 13.8749 0.105635 0.572316 -3.020363
2011-12-12 08:23:04 51°17.529 2°52.18 13.8687 0.105635 0.572307 -3.020363
2011-12-12 08:23:10 51°17.544 2°52.17 13.8646 0.105635 0.572297 -3.020363
2011-12-12 08:23:16 51°17.557 2°52.158 13.87 0.105635 0.572297 -3.020363
2011-12-12 08:23:20 51°17.566 2°52.151 13.8734 0.105635 0.572287 -3.020363
2011-12-12 08:23:25 51°17.578 2°52.141 13.8679 0.105635 0.572287 -3.020363
2011-12-12 08:23:31 51°17.593 2°52.129 13.8707 0.105635 0.572287 -3.020363
2011-12-12 08:23:36 51°17.605 2°52.119 13.8688 0.105635 0.572277 -3.020363
2011-12-12 08:23:40 51°17.614 2°52.111 13.8807 0.105635 0.572297 -3.020363
2011-12-12 08:23:45 51°17.626 2°52.101 13.8735 0.105635 0.572307 -3.020363
2011-12-12 08:23:50 51°17.639 2°52.091 13.8742 0.105635 0.572307 -3.020363
2011-12-12 08:23:56 51°17.653 2°52.079 13.8815 0.105635 0.572307 -3.020363
2011-12-12 08:24:00 51°17.663 2°52.07 13.877 0.105635 0.572307 -3.020363
2011-12-12 08:24:05 51°17.675 2°52.059 13.8788 0.105635 0.572307 -3.020363
2011-12-12 08:24:10 51°17.687 2°52.048 13.8875 0.105635 0.572316 -3.020363
2011-12-12 08:24:15 51°17.699 2°52.037 13.8866 0.105635 0.572336 -3.020363
2011-12-12 08:24:20 51°17.712 2°52.026 13.8823 0.105635 0.572346 -3.020363
2011-12-12 08:24:24 51°17.722 2°52.019 13.8888 0.105635 0.572346 -3.020363
2011-12-12 08:24:29 51°17.734 2°52.008 13.8903 0.105635 0.572346 -3.020363
2011-12-12 08:24:34 51°17.746 2°51.996 13.8875 0.105635 0.572366 -3.020363
2011-12-12 08:24:39 51°17.759 2°51.984 13.8937 0.105635 0.572356 -3.020363
2011-12-12 08:24:44 51°17.772 2°51.973 13.8874 0.105635 0.572356 -3.020363
2011-12-12 08:24:49 51°17.785 2°51.962 13.8942 0.105635 0.572356 -3.020363
2011-12-12 08:24:54 51°17.797 2°51.95 13.8972 0.105635 0.572356 -3.020363
2011-12-12 08:24:59 51°17.81 2°51.939 13.8955 0.105635 0.572376 -3.020363
2011-12-12 08:25:04 51°17.823 2°51.927 13.8927 0.105635 0.572376 -3.020363
2011-12-12 08:25:08 51°17.834 2°51.917 13.8973 0.105635 0.572376 -3.020363
2011-12-12 08:25:13 51°17.847 2°51.906 13.9034 0.105635 0.572386 -3.020363
2011-12-12 08:25:18 51°17.86 2°51.895 13.903 0.105635 0.572386 -3.020363
2011-12-12 08:25:23 51°17.873 2°51.883 13.9035 0.105635 0.572386 -3.020363
2011-12-12 08:25:28 51°17.886 2°51.872 13.9007 0.105635 0.572406 -3.020363
2011-12-12 08:25:33 51°17.899 2°51.863 13.9045 0.105635 0.572406 -3.020363
2011-12-12 08:25:38 51°17.912 2°51.851 13.9078 0.105635 0.572396 -3.020363
2011-12-12 08:25:43 51°17.925 2°51.84 13.9087 0.105635 0.572396 -3.020363
2011-12-12 08:25:48 51°17.938 2°51.828 13.9086 0.105635 0.572396 -3.020363
2011-12-12 08:25:53 51°17.951 2°51.818 13.9114 0.105635 0.572396 -3.020363
2011-12-12 08:25:58 51°17.964 2°51.806 13.9057 0.105635 0.572396 -3.020363
2011-12-12 08:26:03 51°17.977 2°51.796 13.9126 0.105635 0.572396 -3.020363
2011-12-12 08:26:08 51°17.991 2°51.784 13.9105 0.105635 0.572416 -3.020363
2011-12-12 08:26:12 51°18.001 2°51.775 13.9116 0.105635 0.572416 -3.020363
2011-12-12 08:26:18 51°18.017 2°51.762 13.9161 0.105635 0.572426 -3.020363
2011-12-12 08:26:23 51°18.03 2°51.752 13.9182 0.105635 0.572426 -3.020363
2011-12-12 08:26:28 51°18.043 2°51.741 13.9173 0.105635 0.572426 -3.020363
2011-12-12 08:26:32 51°18.054 2°51.733 13.922 0.105635 0.572435 -3.020363
2011-12-12 08:26:38 51°18.069 2°51.72 13.9246 0.105635 0.572435 -3.020363
2011-12-12 08:26:43 51°18.082 2°51.708 13.919 0.105635 0.572435 -3.020363
2011-12-12 08:26:48 51°18.096 2°51.697 13.9187 0.105635 0.572445 -3.020363
2011-12-12 08:26:52 51°18.107 2°51.687 13.9223 0.105635 0.572445 -3.020363
2011-12-12 08:26:58 51°18.123 2°51.674 13.9278 0.105635 0.572435 -3.020363
2011-12-12 08:27:03 51°18.136 2°51.662 13.9255 0.105635 0.572455 -3.020363
2011-12-12 08:27:08 51°18.15 2°51.651 13.9267 0.105635 0.572455 -3.020363
2011-12-12 08:27:12 51°18.16 2°51.642 13.9304 0.105635 0.572455 -3.020363
2011-12-12 08:27:18 51°18.177 2°51.629 13.9305 0.105635 0.572455 -3.020363
2011-12-12 08:27:23 51°18.19 2°51.619 13.9289 0.105635 0.572455 -3.020363
2011-12-12 08:27:28 51°18.204 2°51.607 13.9309 0.105635 0.572465 -3.020363
2011-12-12 08:27:32 51°18.214 2°51.598 13.9351 0.105635 0.572485 -3.020363
2011-12-12 08:27:38 51°18.23 2°51.584 13.9368 0.105635 0.572485 -3.020363
2011-12-12 08:27:43 51°18.243 2°51.572 13.9363 0.105635 0.572485 -3.020363
2011-12-12 08:27:48 51°18.256 2°51.56 13.9316 0.105635 0.572485 -3.020363
2011-12-12 08:27:52 51°18.267 2°51.551 13.9352 0.105635 0.572485 -3.020363
2011-12-12 08:27:58 51°18.283 2°51.536 13.9369 0.105635 0.572485 -3.020363
2011-12-12 08:28:03 51°18.296 2°51.524 13.9416 0.105635 0.572485 -3.020363
2011-12-12 08:28:08 51°18.31 2°51.511 13.937 0.105635 0.572495 -3.020363
2011-12-12 08:28:12 51°18.32 2°51.501 13.9478 0.105635 0.572495 -3.020363
2011-12-12 08:28:18 51°18.336 2°51.486 13.9394 0.105635 0.572505 -3.020363
2011-12-12 08:28:23 51°18.349 2°51.474 13.9442 0.105635 0.572505 -3.020363
2011-12-12 08:28:28 51°18.362 2°51.463 13.9451 0.105635 0.572515 -3.020363
2011-12-12 08:28:33 51°18.375 2°51.451 13.9448 0.105635 0.572525 -3.020363
2011-12-12 08:28:38 51°18.388 2°51.441 13.9447 0.105635 0.572515 -3.020363
2011-12-12 08:28:43 51°18.4 2°51.43 13.9491 0.105635 0.572515 -3.020363
2011-12-12 08:28:48 51°18.414 2°51.419 13.9464 0.105635 0.572515 -3.020363
2011-12-12 08:28:52 51°18.425 2°51.41 13.9464 0.105635 0.572515 -3.020363
2011-12-12 08:28:57 51°18.438 2°51.399 13.9562 0.105532 0.571935 -3.020363
2011-12-12 08:29:03 51°18.454 2°51.386 13.9497 0.105635 0.572525 -3.020363
2011-12-12 08:29:08 51°18.467 2°51.375 13.9579 0.105635 0.572525 -3.020363
2011-12-12 08:29:13 51°18.48 2°51.365 13.9607 0.105635 0.572525 -3.020363
2011-12-12 08:29:19 51°18.495 2°51.354 13.9548 0.105635 0.572525 -3.020363
2011-12-12 08:29:24 51°18.507 2°51.342 13.9599 0.105635 0.572525 -3.020363
2011-12-12 08:29:29 51°18.52 2°51.331 13.9532 0.105635 0.572515 -3.020363
2011-12-12 08:29:34 51°18.533 2°51.32 13.9557 0.105635 0.572505 -3.020363
2011-12-12 08:29:39 51°18.546 2°51.308 13.9581 0.105532 0.571915 -3.020363
2011-12-12 08:29:44 51°18.559 2°51.297 13.9597 0.105635 0.572505 -3.020363
2011-12-12 08:29:49 51°18.572 2°51.285 13.9618 0.105635 0.572515 -3.020363
2011-12-12 08:29:54 51°18.585 2°51.275 13.9749 0.105635 0.572515 -3.020363
2011-12-12 08:30:00 51°18.6 2°51.266 13.9668 0.105532 0.571965 -3.020363
2011-12-12 08:30:05 51°18.612 2°51.256 13.9647 0.105635 0.572535 -3.020363
2011-12-12 08:30:11 51°18.626 2°51.244 13.9698 0.105635 0.572525 -3.020363
2011-12-12 08:30:16 51°18.638 2°51.233 13.9676 0.105635 0.572505 -3.020363
2011-12-12 08:30:21 51°18.65 2°51.223 13.9696 0.105532 0.571925 -3.020363
2011-12-12 08:30:26 51°18.662 2°51.212 13.9704 0.105532 0.571925 -3.020363
2011-12-12 08:30:31 51°18.674 2°51.201 13.9749 0.105532 0.571925 -3.020363
2011-12-12 08:30:36 51°18.687 2°51.19 13.9695 0.105635 0.572505 -3.020363
2011-12-12 08:30:40 51°18.697 2°51.182 13.9781 0.105532 0.571945 -3.020363
2011-12-12 08:30:45 51°18.71 2°51.171 13.9735 0.105635 0.572525 -3.020363
2011-12-12 08:30:50 51°18.723 2°51.161 13.98 0.105635 0.572525 -3.020363
2011-12-12 08:30:55 51°18.736 2°51.15 13.9803 0.105635 0.572525 -3.020363
2011-12-12 08:31:00 51°18.749 2°51.139 13.9793 0.105532 0.571955 -3.020363
2011-12-12 08:31:05 51°18.762 2°51.128 13.9824 0.105532 0.571965 -3.020363
2011-12-12 08:31:10 51°18.775 2°51.116 13.9859 0.105532 0.571965 -3.020363
2011-12-12 08:31:14 51°18.786 2°51.107 13.9841 0.105635 0.572555 -3.020363
2011-12-12 08:31:20 51°18.801 2°51.092 13.9814 0.105635 0.572555 -3.020363
2011-12-12 08:31:24 51°18.812 2°51.082 13.9898 0.105635 0.572555 -3.020363
2011-12-12 08:31:29 51°18.825 2°51.071 13.9853 0.105532 0.571984 -3.020363
2011-12-12 08:31:34 51°18.838 2°51.059 13.9849 0.105532 0.571994 -3.020363
2011-12-12 08:31:39 51°18.851 2°51.047 13.9893 0.105532 0.572014 -3.020363
2011-12-12 08:31:44 51°18.863 2°51.036 13.9903 0.105532 0.572014 -3.020363
2011-12-12 08:31:49 51°18.876 2°51.024 13.9868 0.105532 0.572014 -3.020363
2011-12-12 08:31:54 51°18.889 2°51.012 13.9955 0.105532 0.572014 -3.020363
2011-12-12 08:31:59 51°18.902 2°51.001 13.9985 0.105532 0.572014 -3.020363
2011-12-12 08:32:04 51°18.915 2°50.991 13.9934 0.105635 0.572604 -3.020363
2011-12-12 08:32:09 51°18.928 2°50.98 13.9975 0.105532 0.572024 -3.020363
2011-12-12 08:32:14 51°18.941 2°50.968 13.9933 0.105532 0.572024 -3.020363
2011-12-12 08:32:19 51°18.954 2°50.957 14.0034 0.105532 0.572024 -3.020363
2011-12-12 08:32:24 51°18.966 2°50.947 14.0027 0.105532 0.572024 -3.020363
2011-12-12 08:32:30 51°18.982 2°50.935 13.9992 0.105532 0.572034 -3.020363
2011-12-12 08:32:36 51°18.996 2°50.924 14.0079 0.105532 0.572034 -3.020363
2011-12-12 08:32:41 51°19.008 2°50.913 14.002 0.105532 0.572044 -3.020363
2011-12-12 08:32:46 51°19.02 2°50.903 14.003 0.105532 0.572034 -3.020363
2011-12-12 08:32:51 51°19.032 2°50.893 14.0035 0.105635 0.572614 -3.020363
2011-12-12 08:32:56 51°19.044 2°50.882 14.0086 0.105635 0.572614 -3.020363
2011-12-12 08:33:01 51°19.057 2°50.871 14.0063 0.105635 0.572624 -3.020363
2011-12-12 08:33:06 51°19.069 2°50.86 14.0063 0.105532 0.572044 -3.020363
2011-12-12 08:33:11 51°19.082 2°50.849 14.0137 0.105532 0.572044 -3.020363
2011-12-12 08:33:16 51°19.095 2°50.837 14.0107 0.105532 0.572044 -3.020363
2011-12-12 08:33:20 51°19.105 2°50.828 14.0137 0.105532 0.572044 -3.020363
2011-12-12 08:33:25 51°19.119 2°50.816 14.0126 0.105532 0.572044 -3.020363
2011-12-12 08:33:30 51°19.131 2°50.805 14.02 0.105532 0.572044 -3.020363
2011-12-12 08:33:35 51°19.144 2°50.792 14.0148 0.105532 0.572064 -3.020363
2011-12-12 08:33:40 51°19.157 2°50.78 14.0209 0.105532 0.572064 -3.020363
2011-12-12 08:33:44 51°19.168 2°50.771 14.0214 0.105532 0.572064 -3.020363
2011-12-12 08:33:49 51°19.181 2°50.759 14.0213 0.105532 0.572074 -3.020363
2011-12-12 08:33:54 51°19.194 2°50.747 14.0196 0.105532 0.572074 -3.020363
2011-12-12 08:33:59 51°19.208 2°50.736 14.0257 0.105532 0.572074 -3.020363
2011-12-12 08:34:04 51°19.221 2°50.724 14.0215 0.105532 0.572094 -3.020363
2011-12-12 08:34:09 51°19.234 2°50.712 14.0243 0.105532 0.572094 -3.020363
2011-12-12 08:34:14 51°19.248 2°50.701 14.0284 0.105532 0.572104 -3.020363
2011-12-12 08:34:19 51°19.26 2°50.69 14.0305 0.105532 0.572104 -3.020363
2011-12-12 08:34:24 51°19.273 2°50.679 14.026 0.105532 0.572104 -3.020363
2011-12-12 08:34:28 51°19.284 2°50.669 14.0284 0.105532 0.572104 -3.020363
2011-12-12 08:34:33 51°19.297 2°50.657 14.0301 0.105532 0.572094 -3.020363
2011-12-12 08:34:38 51°19.31 2°50.645 14.0343 0.105532 0.572094 -3.020363
2011-12-12 08:34:43 51°19.323 2°50.633 14.0304 0.105532 0.572094 -3.020363
2011-12-12 08:34:48 51°19.336 2°50.62 14.0397 0.105532 0.572104 -3.020363
2011-12-12 08:34:52 51°19.347 2°50.612 14.035 0.105532 0.572104 -3.020363
2011-12-12 08:34:58 51°19.363 2°50.598 14.0346 0.105532 0.572113 -3.020363
2011-12-12 08:35:03 51°19.376 2°50.587 14.0426 0.105532 0.572113 -3.020363
2011-12-12 08:35:08 51°19.389 2°50.575 14.0394 0.105532 0.572104 -3.020363
2011-12-12 08:35:14 51°19.404 2°50.563 14.0403 0.105532 0.572123 -3.020363
2011-12-12 08:35:19 51°19.416 2°50.551 14.0403 0.105532 0.572123 -3.020363
2011-12-12 08:35:24 51°19.429 2°50.541 14.0482 0.105532 0.572123 -3.020363
2011-12-12 08:35:28 51°19.44 2°50.532 14.0456 0.105532 0.572123 -3.020363
2011-12-12 08:35:33 51°19.453 2°50.521 14.0431 0.105532 0.572123 -3.020363
2011-12-12 08:35:38 51°19.467 2°50.51 14.0491 0.105532 0.572133 -3.020363
2011-12-12 08:35:43 51°19.481 2°50.499 14.053 0.105532 0.572123 -3.020363
2011-12-12 08:35:48 51°19.494 2°50.488 14.0483 0.105532 0.572143 -3.020363
2011-12-12 08:35:52 51°19.505 2°50.479 14.0489 0.105532 0.572143 -3.020363
2011-12-12 08:35:58 51°19.521 2°50.465 14.0531 0.105532 0.572143 -3.020363
2011-12-12 08:36:03 51°19.535 2°50.453 14.0551 0.105532 0.572153 -3.020363
2011-12-12 08:36:08 51°19.549 2°50.441 14.0586 0.105532 0.572143 -3.020363
2011-12-12 08:36:12 51°19.56 2°50.431 14.0526 0.105532 0.572163 -3.020363
2011-12-12 08:36:18 51°19.576 2°50.417 14.0554 0.105532 0.572173 -3.020363
2011-12-12 08:36:23 51°19.59 2°50.404 14.0561 0.105532 0.572173 -3.020363
2011-12-12 08:36:28 51°19.603 2°50.391 14.0611 0.105532 0.572163 -3.020363
2011-12-12 08:36:32 51°19.614 2°50.381 14.0595 0.105532 0.572163 -3.020363
2011-12-12 08:36:38 51°19.63 2°50.365 14.0642 0.105532 0.572173 -3.020363
2011-12-12 08:36:43 51°19.644 2°50.352 14.0574 0.105532 0.572173 -3.020363
2011-12-12 08:36:48 51°19.657 2°50.339 14.0635 0.105532 0.572183 -3.020363
2011-12-12 08:36:52 51°19.668 2°50.329 14.0634 0.105532 0.572183 -3.020363
2011-12-12 08:36:58 51°19.685 2°50.314 14.0692 0.105532 0.572183 -3.020363
2011-12-12 08:37:03 51°19.699 2°50.302 14.0629 0.105532 0.572193 -3.020363
2011-12-12 08:37:08 51°19.713 2°50.29 14.0729 0.105532 0.572193 -3.020363
2011-12-12 08:37:12 51°19.724 2°50.281 14.0676 0.105532 0.572193 -3.020363
2011-12-12 08:37:18 51°19.741 2°50.268 14.0752 0.105532 0.572203 -3.020363
2011-12-12 08:37:23 51°19.755 2°50.256 14.0713 0.105532 0.572203 -3.020363
2011-12-12 08:37:28 51°19.77 2°50.247 14.0722 0.105532 0.572203 -3.020363
2011-12-12 08:37:32 51°19.781 2°50.237 14.0776 0.105532 0.572203 -3.020363
2011-12-12 08:37:38 51°19.798 2°50.225 14.0762 0.105532 0.572213 -3.020363
2011-12-12 08:37:43 51°19.812 2°50.214 14.0763 0.105532 0.572213 -3.020363
2011-12-12 08:37:48 51°19.827 2°50.203 14.0837 0.105532 0.572223 -3.020363
2011-12-12 08:37:52 51°19.838 2°50.195 14.0763 0.105532 0.572223 -3.020363
2011-12-12 08:37:58 51°19.854 2°50.183 14.0778 0.105532 0.572223 -3.020363
2011-12-12 08:38:03 51°19.868 2°50.172 14.0798 0.105532 0.572223 -3.020363
2011-12-12 08:38:08 51°19.883 2°50.162 14.0846 0.105532 0.572223 -3.020363
2011-12-12 08:38:12 51°19.894 2°50.154 14.0904 0.105532 0.572223 -3.020363
2011-12-12 08:38:18 51°19.912 2°50.143 14.0821 0.105532 0.572252 -3.020363
2011-12-12 08:38:23 51°19.926 2°50.133 14.0845 0.105532 0.572252 -3.020363
2011-12-12 08:38:28 51°19.94 2°50.123 14.0913 0.105532 0.572242 -3.020363
2011-12-12 08:38:32 51°19.951 2°50.115 14.0898 0.105532 0.572252 -3.020363
2011-12-12 08:38:38 51°19.968 2°50.102 14.0881 0.105532 0.572252 -3.020363
2011-12-12 08:38:43 51°19.983 2°50.092 14.1004 0.105532 0.572262 -3.020363
2011-12-12 08:38:48 51°19.996 2°50.083 14.0902 0.105532 0.572272 -3.020363
2011-12-12 08:38:53 51°20.009 2°50.074 14.0973 0.105532 0.572272 -3.020363
2011-12-12 08:38:58 51°20.023 2°50.064 14.0975 0.105532 0.572272 -3.020363
2011-12-12 08:39:03 51°20.036 2°50.053 14.0916 0.105532 0.572272 -3.020363
2011-12-12 08:39:08 51°20.05 2°50.042 14.1002 0.105532 0.572272 -3.020363
2011-12-12 08:39:13 51°20.063 2°50.031 14.0932 0.105532 0.572272 -3.020363
2011-12-12 08:39:18 51°20.076 2°50.021 14.107 0.105532 0.572272 -3.020363
2011-12-12 08:39:23 51°20.09 2°50.011 14.1052 0.105532 0.572272 -3.020363
2011-12-12 08:39:28 51°20.102 2°50.001 14.1002 0.105532 0.572292 -3.020363
2011-12-12 08:39:33 51°20.115 2°49.991 14.098 0.105532 0.572282 -3.020363
2011-12-12 08:39:38 51°20.128 2°49.981 14.1017 0.105532 0.572282 -3.020363
2011-12-12 08:39:43 51°20.141 2°49.97 14.1004 0.105532 0.572262 -3.020363
2011-12-12 08:39:48 51°20.155 2°49.958 14.1086 0.105429 0.571682 -3.020363
2011-12-12 08:39:52 51°20.166 2°49.95 14.1053 0.105429 0.571682 -3.020363
2011-12-12 08:39:58 51°20.181 2°49.937 14.1095 0.105532 0.572272 -3.020363
2011-12-12 08:40:03 51°20.195 2°49.926 14.1067 0.105532 0.572272 -3.020363
2011-12-12 08:40:08 51°20.209 2°49.914 14.1075 0.105532 0.572272 -3.020363
2011-12-12 08:40:12 51°20.22 2°49.905 14.1112 0.105532 0.572302 -3.020363
2011-12-12 08:40:19 51°20.239 2°49.891 14.1192 0.105532 0.572312 -3.020363
2011-12-12 08:40:24 51°20.251 2°49.882 14.1127 0.105532 0.572312 -3.020363
2011-12-12 08:40:30 51°20.267 2°49.871 14.1122 0.105532 0.572312 -3.020363
2011-12-12 08:40:35 51°20.28 2°49.86 14.1119 0.105532 0.572302 -3.020363
2011-12-12 08:40:40 51°20.293 2°49.849 14.1113 0.105532 0.572292 -3.020363
2011-12-12 08:40:44 51°20.304 2°49.84 14.1196 0.105532 0.572292 -3.020363
2011-12-12 08:40:49 51°20.317 2°49.83 14.1205 0.105532 0.572302 -3.020363
2011-12-12 08:40:54 51°20.33 2°49.819 14.1172 0.105532 0.572302 -3.020363
2011-12-12 08:40:59 51°20.343 2°49.809 14.122 0.105532 0.572312 -3.020363
2011-12-12 08:41:04 51°20.357 2°49.799 14.1278 0.105532 0.572332 -3.020363
2011-12-12 08:41:09 51°20.37 2°49.788 14.1273 0.105532 0.572342 -3.020363
2011-12-12 08:41:14 51°20.383 2°49.778 14.1249 0.105532 0.572342 -3.020363
2011-12-12 08:41:19 51°20.397 2°49.767 14.1248 0.105532 0.572352 -3.020363
2011-12-12 08:41:24 51°20.41 2°49.757 14.1269 0.105532 0.572352 -3.020363
2011-12-12 08:41:28 51°20.421 2°49.748 14.1269 0.105532 0.572362 -3.020363
2011-12-12 08:41:33 51°20.434 2°49.737 14.1295 0.105532 0.572352 -3.020363
2011-12-12 08:41:38 51°20.448 2°49.726 14.1337 0.105429 0.571781 -3.020363
2011-12-12 08:41:43 51°20.462 2°49.714 14.1326 0.105532 0.572362 -3.020363
2011-12-12 08:41:48 51°20.476 2°49.703 14.1386 0.105532 0.572362 -3.020363
2011-12-12 08:41:53 51°20.489 2°49.692 14.1329 0.105532 0.572362 -3.020363
2011-12-12 08:41:58 51°20.503 2°49.682 14.1327 0.105532 0.572382 -3.020363
2011-12-12 08:42:03 51°20.517 2°49.67 14.1387 0.105429 0.571801 -3.020363
2011-12-12 08:42:08 51°20.53 2°49.659 14.1339 0.105532 0.572382 -3.020363
2011-12-12 08:42:12 51°20.541 2°49.65 14.1406 0.105532 0.572391 -3.020363
2011-12-12 08:42:18 51°20.558 2°49.637 14.1394 0.105532 0.572391 -3.020363
2011-12-12 08:42:23 51°20.571 2°49.626 14.1435 0.105532 0.572391 -3.020363
2011-12-12 08:42:28 51°20.585 2°49.615 14.1435 0.105429 0.571821 -3.020363
2011-12-12 08:42:32 51°20.596 2°49.606 14.1452 0.105429 0.571831 -3.020363
2011-12-12 08:42:38 51°20.612 2°49.593 14.1477 0.105532 0.572421 -3.020363
2011-12-12 08:42:43 51°20.626 2°49.582 14.1454 0.105532 0.572431 -3.020363
2011-12-12 08:42:48 51°20.64 2°49.571 14.1464 0.105532 0.572441 -3.020363
2011-12-12 08:42:52 51°20.65 2°49.562 14.1509 0.105532 0.572441 -3.020363
2011-12-12 08:42:58 51°20.667 2°49.547 14.1501 0.105429 0.571851 -3.020363
2011-12-12 08:43:03 51°20.68 2°49.535 14.1536 0.105429 0.571861 -3.020363
2011-12-12 08:43:08 51°20.694 2°49.524 14.1534 0.105429 0.571861 -3.020363
2011-12-12 08:43:13 51°20.708 2°49.514 14.1619 0.105532 0.572441 -3.020363
2011-12-12 08:43:19 51°20.723 2°49.502 14.1594 0.105429 0.571871 -3.020363
2011-12-12 08:43:24 51°20.736 2°49.491 14.156 0.105429 0.571871 -3.020363
2011-12-12 08:43:28 51°20.747 2°49.482 14.1535 0.105532 0.572451 -3.020363
2011-12-12 08:43:33 51°20.761 2°49.472 14.1608 0.105429 0.571871 -3.020363
2011-12-12 08:43:38 51°20.774 2°49.461 14.1645 0.105532 0.572461 -3.020363
2011-12-12 08:43:43 51°20.787 2°49.45 14.165 0.105429 0.571881 -3.020363
2011-12-12 08:43:48 51°20.8 2°49.439 14.1626 0.105532 0.572471 -3.020363
2011-12-12 08:43:53 51°20.814 2°49.428 14.1604 0.105532 0.572471 -3.020363
2011-12-12 08:43:58 51°20.827 2°49.417 14.1646 0.105532 0.572471 -3.020363
2011-12-12 08:44:03 51°20.841 2°49.406 14.1688 0.105429 0.57189 -3.020363
2011-12-12 08:44:08 51°20.855 2°49.395 14.1703 0.105429 0.57191 -3.020363
2011-12-12 08:44:12 51°20.866 2°49.386 14.1628 0.105429 0.57191 -3.020363
2011-12-12 08:44:18 51°20.883 2°49.372 14.1704 0.105532 0.572491 -3.020363
2011-12-12 08:44:23 51°20.897 2°49.361 14.1677 0.105532 0.572491 -3.020363
2011-12-12 08:44:28 51°20.91 2°49.349 14.1747 0.105532 0.572501 -3.020363
2011-12-12 08:44:32 51°20.922 2°49.34 14.1693 0.105429 0.57192 -3.020363
2011-12-12 08:44:38 51°20.938 2°49.328 14.173 0.105429 0.57192 -3.020363
2011-12-12 08:44:43 51°20.952 2°49.317 14.178 0.105429 0.57193 -3.020363
2011-12-12 08:44:48 51°20.966 2°49.306 14.174 0.105429 0.57194 -3.020363
2011-12-12 08:44:52 51°20.978 2°49.297 14.1818 0.105429 0.57194 -3.020363
2011-12-12 08:44:58 51°20.994 2°49.284 14.1764 0.105532 0.572531 -3.020363
2011-12-12 08:45:03 51°21.008 2°49.273 14.1764 0.105429 0.57195 -3.020363
2011-12-12 08:45:08 51°21.021 2°49.263 14.1856 0.105429 0.57197 -3.020363
2011-12-12 08:45:13 51°21.035 2°49.253 14.1801 0.105429 0.57197 -3.020363
2011-12-12 08:45:18 51°21.048 2°49.242 14.1814 0.105429 0.57196 -3.020363
2011-12-12 08:45:23 51°21.062 2°49.231 14.1785 0.105429 0.57196 -3.020363
2011-12-12 08:45:28 51°21.075 2°49.221 14.1802 0.105429 0.57197 -3.020363
2011-12-12 08:45:32 51°21.086 2°49.212 14.1875 0.105429 0.57197 -3.020363
2011-12-12 08:45:38 51°21.103 2°49.199 14.1865 0.105429 0.57198 -3.020363
2011-12-12 08:45:43 51°21.117 2°49.188 14.1923 0.105429 0.57198 -3.020363
2011-12-12 08:45:48 51°21.131 2°49.177 14.1859 0.105429 0.57199 -3.020363
2011-12-12 08:45:52 51°21.141 2°49.168 14.1894 0.105429 0.57199 -3.020363
2011-12-12 08:45:58 51°21.158 2°49.154 14.1894 0.105429 0.57199 -3.020363
2011-12-12 08:46:03 51°21.171 2°49.144 14.1879 0.105429 0.57199 -3.020363
2011-12-12 08:46:08 51°21.186 2°49.134 14.1966 0.105429 0.57201 -3.020363
2011-12-12 08:46:12 51°21.197 2°49.125 14.1974 0.105429 0.57202 -3.020363
2011-12-12 08:46:18 51°21.214 2°49.112 14.1973 0.105429 0.57202 -3.020363
2011-12-12 08:46:23 51°21.227 2°49.1 14.1956 0.105429 0.57202 -3.020363
2011-12-12 08:46:28 51°21.241 2°49.088 14.1974 0.105429 0.57202 -3.020363
2011-12-12 08:46:32 51°21.252 2°49.079 14.2006 0.105429 0.57201 -3.020363
2011-12-12 08:46:38 51°21.269 2°49.065 14.2027 0.105429 0.57202 -3.020363
2011-12-12 08:46:43 51°21.283 2°49.053 14.1988 0.105429 0.572029 -3.020363
2011-12-12 08:46:48 51°21.296 2°49.042 14.1965 0.105429 0.572039 -3.020363
2011-12-12 08:46:52 51°21.307 2°49.033 14.2057 0.105429 0.572039 -3.020363
2011-12-12 08:46:58 51°21.324 2°49.02 14.212 0.105429 0.572039 -3.020363
2011-12-12 08:47:03 51°21.338 2°49.011 14.2037 0.105429 0.572049 -3.020363
2011-12-12 08:47:08 51°21.351 2°49.001 14.2135 0.105429 0.572049 -3.020363
2011-12-12 08:47:13 51°21.364 2°48.992 14.2019 0.105429 0.572059 -3.020363
2011-12-12 08:47:18 51°21.377 2°48.981 14.2068 0.105429 0.572059 -3.020363
2011-12-12 08:47:23 51°21.391 2°48.971 14.2074 0.105429 0.572059 -3.020363
2011-12-12 08:47:28 51°21.404 2°48.961 14.2094 0.105429 0.572059 -3.020363
2011-12-12 08:47:32 51°21.415 2°48.953 14.2089 0.105429 0.572059 -3.020363
2011-12-12 08:47:38 51°21.432 2°48.941 14.2124 0.105429 0.572059 -3.020363
2011-12-12 08:47:43 51°21.446 2°48.931 14.2176 0.105429 0.572069 -3.020363
2011-12-12 08:47:48 51°21.46 2°48.921 14.2154 0.105429 0.572089 -3.020363
2011-12-12 08:47:52 51°21.471 2°48.912 14.2112 0.105429 0.572089 -3.020363
2011-12-12 08:47:58 51°21.487 2°48.901 14.2206 0.105429 0.572089 -3.020363
2011-12-12 08:48:03 51°21.5 2°48.89 14.2164 0.105429 0.572099 -3.020363
2011-12-12 08:48:08 51°21.514 2°48.88 14.2252 0.105429 0.572099 -3.020363
2011-12-12 08:48:12 51°21.524 2°48.872 14.2246 0.105429 0.572109 -3.020363
2011-12-12 08:48:18 51°21.541 2°48.859 14.2265 0.105429 0.572099 -3.020363
2011-12-12 08:48:23 51°21.554 2°48.849 14.2185 0.105429 0.572099 -3.020363
2011-12-12 08:48:28 51°21.567 2°48.837 14.2252 0.105429 0.572099 -3.020363
2011-12-12 08:48:33 51°21.58 2°48.826 14.2209 0.105429 0.572089 -3.020363
2011-12-12 08:48:38 51°21.594 2°48.814 14.2292 0.105429 0.572099 -3.020363
2011-12-12 08:48:43 51°21.608 2°48.802 14.2282 0.105429 0.572099 -3.020363
2011-12-12 08:48:48 51°21.621 2°48.791 14.2307 0.105429 0.572099 -3.020363
2011-12-12 08:48:53 51°21.635 2°48.779 14.2281 0.105429 0.572099 -3.020363
2011-12-12 08:48:58 51°21.648 2°48.766 14.2289 0.105429 0.572099 -3.020363
2011-12-12 08:49:03 51°21.663 2°48.755 14.2274 0.105429 0.572109 -3.020363
2011-12-12 08:49:08 51°21.677 2°48.742 14.2342 0.105429 0.572119 -3.020363
2011-12-12 08:49:12 51°21.688 2°48.732 14.2367 0.105429 0.572119 -3.020363
2011-12-12 08:49:18 51°21.705 2°48.719 14.2389 0.105429 0.572129 -3.020363
2011-12-12 08:49:24 51°21.721 2°48.708 14.2366 0.105429 0.572129 -3.020363
2011-12-12 08:49:28 51°21.732 2°48.699 14.2352 0.105429 0.572149 -3.020363
2011-12-12 08:49:33 51°21.746 2°48.687 14.2364 0.105429 0.572139 -3.020363
2011-12-12 08:49:38 51°21.759 2°48.677 14.2424 0.105429 0.572159 -3.020363
2011-12-12 08:49:44 51°21.775 2°48.665 14.2421 0.105429 0.572159 -3.020363
2011-12-12 08:49:49 51°21.789 2°48.655 14.2426 0.105429 0.572149 -3.020363
2011-12-12 08:49:54 51°21.803 2°48.644 14.2415 0.105429 0.572149 -3.020363
2011-12-12 08:49:59 51°21.817 2°48.634 14.2495 0.105429 0.572149 -3.020363
2011-12-12 08:50:04 51°21.83 2°48.624 14.241 0.105429 0.572149 -3.020363
2011-12-12 08:50:09 51°21.844 2°48.615 14.2446 0.105429 0.572159 -3.020363
2011-12-12 08:50:15 51°21.86 2°48.605 14.2578 0.105429 0.572178 -3.020363
2011-12-12 08:50:20 51°21.873 2°48.596 14.2473 0.105429 0.572188 -3.020363
2011-12-12 08:50:24 51°21.884 2°48.588 14.2496 0.105429 0.572188 -3.020363
2011-12-12 08:50:29 51°21.897 2°48.579 14.2546 0.105429 0.572178 -3.020363
2011-12-12 08:50:35 51°21.914 2°48.567 14.2489 0.105429 0.572178 -3.020363
2011-12-12 08:50:40 51°21.927 2°48.557 14.2541 0.105429 0.572178 -3.020363
2011-12-12 08:50:44 51°21.939 2°48.549 14.25 0.105429 0.572178 -3.020363
2011-12-12 08:50:49 51°21.953 2°48.539 14.2564 0.105429 0.572198 -3.020363
2011-12-12 08:50:54 51°21.967 2°48.528 14.2595 0.105429 0.572198 -3.020363
2011-12-12 08:50:59 51°21.981 2°48.517 14.2545 0.105429 0.572198 -3.020363
2011-12-12 08:51:04 51°21.996 2°48.506 14.2613 0.105429 0.572198 -3.020363
2011-12-12 08:51:08 51°22.007 2°48.498 14.2668 0.105429 0.572218 -3.020363
2011-12-12 08:51:13 51°22.021 2°48.487 14.257 0.105429 0.572228 -3.020363
2011-12-12 08:51:18 51°22.035 2°48.476 14.2598 0.105429 0.572238 -3.020363
2011-12-12 08:51:23 51°22.049 2°48.465 14.2571 0.105429 0.572238 -3.020363
2011-12-12 08:51:28 51°22.064 2°48.455 14.2704 0.105429 0.572238 -3.020363
2011-12-12 08:51:32 51°22.075 2°48.447 14.2698 0.105429 0.572258 -3.020363
2011-12-12 08:51:37 51°22.089 2°48.435 14.2732 0.105429 0.572258 -3.020363
2011-12-12 08:51:43 51°22.105 2°48.422 14.2672 0.105429 0.572248 -3.020363
2011-12-12 08:51:48 51°22.12 2°48.411 14.2755 0.105429 0.572248 -3.020363
2011-12-12 08:51:52 51°22.131 2°48.403 14.2686 0.105429 0.572248 -3.020363
2011-12-12 08:51:58 51°22.147 2°48.392 14.2728 0.105429 0.572248 -3.020363
2011-12-12 08:52:03 51°22.161 2°48.383 14.2713 0.105429 0.572248 -3.020363
2011-12-12 08:52:08 51°22.175 2°48.373 14.2761 0.105429 0.572248 -3.020363
2011-12-12 08:52:12 51°22.186 2°48.365 14.276 0.105429 0.572248 -3.020363
2011-12-12 08:52:18 51°22.202 2°48.353 14.2775 0.105326 0.571677 -3.020363
2011-12-12 08:52:23 51°22.216 2°48.342 14.2818 0.105326 0.571677 -3.020363
2011-12-12 08:52:28 51°22.231 2°48.331 14.2811 0.105429 0.572268 -3.020363
2011-12-12 08:52:32 51°22.242 2°48.322 14.2815 0.105429 0.572278 -3.020363
2011-12-12 08:52:38 51°22.259 2°48.309 14.2773 0.105429 0.572278 -3.020363
2011-12-12 08:52:43 51°22.273 2°48.297 14.2822 0.105429 0.572278 -3.020363
2011-12-12 08:52:48 51°22.288 2°48.286 14.2794 0.105429 0.572298 -3.020363
2011-12-12 08:52:52 51°22.299 2°48.277 14.2813 0.105429 0.572298 -3.020363
2011-12-12 08:52:58 51°22.316 2°48.263 14.2915 0.105429 0.572298 -3.020363
2011-12-12 08:53:03 51°22.33 2°48.252 14.2891 0.105326 0.571717 -3.020363
2011-12-12 08:53:08 51°22.344 2°48.241 14.2855 0.105429 0.572308 -3.020363
2011-12-12 08:53:12 51°22.355 2°48.232 14.2827 0.105429 0.572318 -3.020363
2011-12-12 08:53:18 51°22.372 2°48.219 14.2914 0.105326 0.571747 -3.020363
2011-12-12 08:53:24 51°22.388 2°48.208 14.3045 0.105326 0.571747 -3.020363
2011-12-12 08:53:29 51°22.4 2°48.2 14.2921 0.105326 0.571727 -3.020363
2011-12-12 08:53:35 51°22.414 2°48.189 14.2906 0.105429 0.572278 -3.020363
2011-12-12 08:53:40 51°22.426 2°48.179 14.292 0.105326 0.571657 -3.020363
2011-12-12 08:53:46 51°22.441 2°48.167 14.2927 0.105429 0.572228 -3.020363
2011-12-12 08:53:51 51°22.454 2°48.156 14.2978 0.105429 0.572218 -3.020363
2011-12-12 08:53:56 51°22.468 2°48.146 14.2951 0.105429 0.572218 -3.020363
2011-12-12 08:54:00 51°22.479 2°48.138 14.3031 0.105429 0.572228 -3.020363
2011-12-12 08:54:05 51°22.492 2°48.128 14.2982 0.105429 0.572248 -3.020363
2011-12-12 08:54:10 51°22.506 2°48.119 14.3014 0.105429 0.572248 -3.020363
2011-12-12 08:54:15 51°22.519 2°48.108 14.2983 0.105429 0.572268 -3.020363
2011-12-12 08:54:20 51°22.533 2°48.098 14.3055 0.105429 0.572278 -3.020363
2011-12-12 08:54:24 51°22.544 2°48.089 14.3074 0.105429 0.572278 -3.020363
2011-12-12 08:54:29 51°22.558 2°48.079 14.3067 0.105429 0.572288 -3.020363
2011-12-12 08:54:34 51°22.572 2°48.069 14.3019 0.105429 0.572318 -3.020363
2011-12-12 08:54:39 51°22.586 2°48.058 14.3145 0.105326 0.571737 -3.020363
2011-12-12 08:54:44 51°22.599 2°48.048 14.3042 0.105326 0.571747 -3.020363
2011-12-12 08:54:49 51°22.613 2°48.038 14.3154 0.105326 0.571757 -3.020363
2011-12-12 08:54:54 51°22.627 2°48.028 14.3168 0.105326 0.571757 -3.020363
2011-12-12 08:54:59 51°22.64 2°48.017 14.3196 0.105429 0.572357 -3.020363
2011-12-12 08:55:04 51°22.654 2°48.007 14.3176 0.105429 0.572377 -3.020363
2011-12-12 08:55:08 51°22.665 2°47.999 14.3169 0.105429 0.572387 -3.020363
2011-12-12 08:55:13 51°22.678 2°47.987 14.3135 0.105429 0.572387 -3.020363
2011-12-12 08:55:18 51°22.691 2°47.976 14.3255 0.105429 0.572387 -3.020363
2011-12-12 08:55:24 51°22.707 2°47.964 14.3244 0.105429 0.572387 -3.020363
2011-12-12 08:55:29 51°22.719 2°47.954 14.3188 0.105429 0.572397 -3.020363
2011-12-12 08:55:34 51°22.733 2°47.943 14.3165 0.105429 0.572387 -3.020363
2011-12-12 08:55:39 51°22.746 2°47.933 14.3201 0.105326 0.571796 -3.020363
2011-12-12 08:55:44 51°22.759 2°47.922 14.3184 0.105429 0.572387 -3.020363
2011-12-12 08:55:48 51°22.77 2°47.913 14.3222 0.105326 0.571806 -3.020363
2011-12-12 08:55:53 51°22.784 2°47.901 14.3217 0.105326 0.571806 -3.020363
2011-12-12 08:55:59 51°22.8 2°47.887 14.3265 0.105326 0.571796 -3.020363
2011-12-12 08:56:04 51°22.813 2°47.875 14.3259 0.105326 0.571816 -3.020363
2011-12-12 08:56:08 51°22.824 2°47.866 14.3289 0.105326 0.571816 -3.020363
2011-12-12 08:56:13 51°22.838 2°47.854 14.3258 0.105326 0.571816 -3.020363
2011-12-12 08:56:18 51°22.852 2°47.843 14.3309 0.105429 0.572417 -3.020363
2011-12-12 08:56:23 51°22.866 2°47.833 14.3382 0.105429 0.572417 -3.020363
2011-12-12 08:56:28 51°22.88 2°47.822 14.3345 0.105429 0.572427 -3.020363
2011-12-12 08:56:32 51°22.891 2°47.813 14.3356 0.105326 0.571856 -3.020363
2011-12-12 08:56:38 51°22.907 2°47.8 14.3384 0.105429 0.572437 -3.020363
2011-12-12 08:56:43 51°22.921 2°47.788 14.3474 0.105326 0.571856 -3.020363
2011-12-12 08:56:48 51°22.935 2°47.777 14.3365 0.105326 0.571866 -3.020363
2011-12-12 08:56:52 51°22.947 2°47.769 14.3337 0.105326 0.571866 -3.020363
2011-12-12 08:56:58 51°22.963 2°47.755 14.3414 0.105326 0.571866 -3.020363
2011-12-12 08:57:03 51°22.978 2°47.745 14.3437 0.105326 0.571866 -3.020363
2011-12-12 08:57:08 51°22.992 2°47.734 14.3439 0.105429 0.572447 -3.020363
2011-12-12 08:57:12 51°23.004 2°47.726 14.3475 0.105429 0.572447 -3.020363
2011-12-12 08:57:18 51°23.021 2°47.714 14.3523 0.105326 0.571876 -3.020363
2011-12-12 08:57:23 51°23.036 2°47.703 14.3495 0.105326 0.571876 -3.020363
2011-12-12 08:57:28 51°23.05 2°47.694 14.3464 0.105429 0.572467 -3.020363
2011-12-12 08:57:32 51°23.062 2°47.686 14.3564 0.105326 0.571886 -3.020363
2011-12-12 08:57:38 51°23.079 2°47.676 14.359 0.105326 0.571906 -3.020363
2011-12-12 08:57:43 51°23.094 2°47.666 14.3538 0.105326 0.571906 -3.020363
2011-12-12 08:57:48 51°23.108 2°47.658 14.3567 0.105326 0.571916 -3.020363
2011-12-12 08:57:53 51°23.123 2°47.649 14.3684 0.105326 0.571916 -3.020363
2011-12-12 08:57:58 51°23.137 2°47.641 14.3539 0.105326 0.571926 -3.020363
2011-12-12 08:58:03 51°23.151 2°47.632 14.3641 0.105326 0.571936 -3.020363
2011-12-12 08:58:08 51°23.166 2°47.624 14.3621 0.105326 0.571945 -3.020363
2011-12-12 08:58:12 51°23.177 2°47.616 14.3643 0.105326 0.571926 -3.020363
2011-12-12 08:58:18 51°23.193 2°47.606 14.3543 0.105326 0.571945 -3.020363
2011-12-12 08:58:23 51°23.207 2°47.597 14.3676 0.105326 0.571945 -3.020363
2011-12-12 08:58:28 51°23.221 2°47.588 14.3639 0.105326 0.571936 -3.020363
2011-12-12 08:58:32 51°23.232 2°47.581 14.3639 0.105326 0.571945 -3.020363
2011-12-12 08:58:38 51°23.249 2°47.57 14.3632 0.105429 0.572517 -3.020363
2011-12-12 08:58:43 51°23.263 2°47.561 14.3643 0.105326 0.571945 -3.020363
2011-12-12 08:58:48 51°23.277 2°47.551 14.3628 0.105326 0.571945 -3.020363
2011-12-12 08:58:52 51°23.289 2°47.543 14.3616 0.105326 0.571945 -3.020363
2011-12-12 08:58:58 51°23.305 2°47.531 14.3704 0.105326 0.571945 -3.020363
2011-12-12 08:59:03 51°23.32 2°47.521 14.3787 0.105326 0.571945 -3.020363
2011-12-12 08:59:08 51°23.334 2°47.512 14.3691 0.105326 0.571955 -3.020363
2011-12-12 08:59:13 51°23.348 2°47.504 14.3711 0.105326 0.571965 -3.020363
2011-12-12 08:59:18 51°23.362 2°47.495 14.3727 0.105326 0.571975 -3.020363
2011-12-12 08:59:23 51°23.376 2°47.484 14.3729 0.105326 0.571975 -3.020363
2011-12-12 08:59:28 51°23.39 2°47.475 14.3777 0.105326 0.571965 -3.020363
2011-12-12 08:59:33 51°23.404 2°47.465 14.3844 0.105326 0.571965 -3.020363
2011-12-12 08:59:38 51°23.419 2°47.456 14.3769 0.105326 0.571965 -3.020363
2011-12-12 08:59:43 51°23.433 2°47.446 14.3861 0.105326 0.571975 -3.020363
2011-12-12 08:59:48 51°23.447 2°47.437 14.3894 0.105326 0.571985 -3.020363
2011-12-12 08:59:52 51°23.459 2°47.429 14.3799 0.105326 0.571985 -3.020363
2011-12-12 08:59:58 51°23.476 2°47.418 14.3882 0.105326 0.571995 -3.020363
2011-12-12 09:00:03 51°23.491 2°47.408 14.3848 0.105326 0.571995 -3.020363
2011-12-12 09:00:08 51°23.505 2°47.398 14.3807 0.105326 0.572005 -3.020363
2011-12-12 09:00:12 51°23.517 2°47.39 14.379 0.105326 0.572025 -3.020363
2011-12-12 09:00:18 51°23.534 2°47.379 14.3956 0.105326 0.572025 -3.020363
2011-12-12 09:00:23 51°23.549 2°47.369 14.3871 0.105326 0.572025 -3.020363
2011-12-12 09:00:28 51°23.563 2°47.358 14.3835 0.105326 0.572035 -3.020363
2011-12-12 09:00:32 51°23.574 2°47.349 14.3992 0.105326 0.572025 -3.020363
2011-12-12 09:00:38 51°23.592 2°47.337 14.3925 0.105326 0.572035 -3.020363
2011-12-12 09:00:43 51°23.606 2°47.326 14.3878 0.105326 0.572035 -3.020363
2011-12-12 09:00:48 51°23.62 2°47.316 14.3895 0.105326 0.572035 -3.020363
2011-12-12 09:00:52 51°23.631 2°47.307 14.3955 0.105326 0.572035 -3.020363
2011-12-12 09:00:58 51°23.649 2°47.295 14.4053 0.105326 0.572035 -3.020363
2011-12-12 09:01:03 51°23.663 2°47.285 14.3999 0.105326 0.572045 -3.020363
2011-12-12 09:01:08 51°23.677 2°47.274 14.3972 0.105326 0.572045 -3.020363
2011-12-12 09:01:13 51°23.691 2°47.265 14.4054 0.105326 0.572075 -3.020363
2011-12-12 09:01:18 51°23.706 2°47.256 14.3988 0.105326 0.572075 -3.020363
2011-12-12 09:01:23 51°23.719 2°47.245 14.4113 0.105326 0.572075 -3.020363
2011-12-12 09:01:28 51°23.734 2°47.236 14.4023 0.105326 0.572065 -3.020363
2011-12-12 09:01:32 51°23.745 2°47.228 14.414 0.105326 0.572055 -3.020363
2011-12-12 09:01:38 51°23.762 2°47.218 14.4011 0.105326 0.572065 -3.020363
2011-12-12 09:01:43 51°23.776 2°47.208 14.4197 0.105326 0.572075 -3.020363
2011-12-12 09:01:48 51°23.79 2°47.2 14.4219 0.105326 0.572085 -3.020363
2011-12-12 09:01:52 51°23.802 2°47.192 14.4079 0.105326 0.572085 -3.020363
2011-12-12 09:01:58 51°23.817 2°47.182 14.4074 0.105326 0.572095 -3.020363
2011-12-12 09:02:03 51°23.831 2°47.172 14.4064 0.105326 0.572075 -3.020363
2011-12-12 09:02:08 51°23.845 2°47.164 14.4187 0.105326 0.572075 -3.020363
2011-12-12 09:02:12 51°23.856 2°47.156 14.4144 0.105326 0.572065 -3.020363
2011-12-12 09:02:18 51°23.873 2°47.145 14.4236 0.105326 0.572065 -3.020363
2011-12-12 09:02:23 51°23.887 2°47.136 14.4267 0.105326 0.572065 -3.020363
2011-12-12 09:02:28 51°23.901 2°47.126 14.4229 0.105326 0.572075 -3.020363
2011-12-12 09:02:32 51°23.913 2°47.119 14.4157 0.105326 0.572085 -3.020363
2011-12-12 09:02:38 51°23.93 2°47.107 14.4269 0.105326 0.572085 -3.020363
2011-12-12 09:02:43 51°23.945 2°47.097 14.4176 0.105326 0.572095 -3.020363
2011-12-12 09:02:48 51°23.959 2°47.087 14.4119 0.105326 0.572105 -3.020363
2011-12-12 09:02:52 51°23.97 2°47.08 14.4344 0.105326 0.572105 -3.020363
2011-12-12 09:02:58 51°23.989 2°47.07 14.4265 0.105326 0.572124 -3.020363
2011-12-12 09:03:03 51°24.002 2°47.06 14.4278 0.105326 0.572134 -3.020363
2011-12-12 09:03:08 51°24.017 2°47.052 14.4312 0.105326 0.572144 -3.020363
2011-12-12 09:03:12 51°24.027 2°47.043 14.4281 0.105326 0.572144 -3.020363
2011-12-12 09:03:18 51°24.044 2°47.033 14.4368 0.105326 0.572144 -3.020363
2011-12-12 09:03:23 51°24.058 2°47.023 14.444 0.105326 0.572144 -3.020363
2011-12-12 09:03:28 51°24.072 2°47.013 14.4263 0.105326 0.572154 -3.020363
2011-12-12 09:03:32 51°24.083 2°47.004 14.4317 0.105326 0.572154 -3.020363
2011-12-12 09:03:38 51°24.1 2°46.993 14.4479 0.105326 0.572154 -3.020363
2011-12-12 09:03:43 51°24.114 2°46.984 14.4417 0.105326 0.572164 -3.020363
2011-12-12 09:03:48 51°24.128 2°46.976 14.4323 0.105326 0.572184 -3.020363
2011-12-12 09:03:52 51°24.14 2°46.969 14.443 0.105326 0.572184 -3.020363
2011-12-12 09:03:58 51°24.156 2°46.956 14.4402 0.105326 0.572164 -3.020363
2011-12-12 09:04:03 51°24.17 2°46.946 14.4453 0.105326 0.572164 -3.020363
2011-12-12 09:04:08 51°24.184 2°46.936 14.445 0.105326 0.572164 -3.020363
2011-12-12 09:04:12 51°24.195 2°46.928 14.4395 0.105326 0.572154 -3.020363
2011-12-12 09:04:18 51°24.212 2°46.916 14.4509 0.105326 0.572164 -3.020363
2011-12-12 09:04:23 51°24.226 2°46.906 14.4453 0.105326 0.572164 -3.020363
2011-12-12 09:04:28 51°24.24 2°46.897 14.4446 0.105326 0.572174 -3.020363
2011-12-12 09:04:33 51°24.255 2°46.888 14.4448 0.105326 0.572184 -3.020363
2011-12-12 09:04:38 51°24.269 2°46.877 14.4458 0.105326 0.572194 -3.020363
2011-12-12 09:04:43 51°24.283 2°46.867 14.4504 0.105326 0.572204 -3.020363
2011-12-12 09:04:48 51°24.297 2°46.857 14.4568 0.105326 0.572214 -3.020363
2011-12-12 09:04:52 51°24.308 2°46.849 14.4453 0.105326 0.572214 -3.020363
2011-12-12 09:04:58 51°24.325 2°46.837 14.4488 0.105326 0.572214 -3.020363
2011-12-12 09:05:03 51°24.339 2°46.826 14.4605 0.105326 0.572214 -3.020363
2011-12-12 09:05:08 51°24.354 2°46.817 14.459 0.105326 0.572214 -3.020363
2011-12-12 09:05:12 51°24.365 2°46.808 14.4515 0.105223 0.571633 -3.020363
2011-12-12 09:05:18 51°24.382 2°46.797 14.4641 0.105326 0.572224 -3.020363
2011-12-12 09:05:23 51°24.396 2°46.787 14.4653 0.105326 0.572224 -3.020363
2011-12-12 09:05:28 51°24.411 2°46.778 14.4578 0.105326 0.572234 -3.020363
2011-12-12 09:05:32 51°24.423 2°46.77 14.4694 0.105326 0.572224 -3.020363
2011-12-12 09:05:38 51°24.44 2°46.76 14.4634 0.105326 0.572244 -3.020363
2011-12-12 09:05:43 51°24.454 2°46.75 14.4651 0.105326 0.572254 -3.020363
2011-12-12 09:05:48 51°24.468 2°46.74 14.4662 0.105223 0.571672 -3.020363
2011-12-12 09:05:52 51°24.48 2°46.733 14.4747 0.105223 0.571672 -3.020363
2011-12-12 09:05:58 51°24.497 2°46.721 14.4656 0.105326 0.572254 -3.020363
2011-12-12 09:06:03 51°24.511 2°46.711 14.4808 0.105326 0.572264 -3.020363
2011-12-12 09:06:08 51°24.525 2°46.702 14.4657 0.105326 0.572264 -3.020363
2011-12-12 09:06:12 51°24.537 2°46.694 14.4798 0.105326 0.572274 -3.020363
2011-12-12 09:06:18 51°24.554 2°46.685 14.4824 0.105326 0.572284 -3.020363
2011-12-12 09:06:23 51°24.568 2°46.676 14.4859 0.105326 0.572284 -3.020363
2011-12-12 09:06:28 51°24.582 2°46.667 14.4805 0.105326 0.572294 -3.020363
2011-12-12 09:06:33 51°24.596 2°46.657 14.4708 0.105326 0.572294 -3.020363
2011-12-12 09:06:38 51°24.609 2°46.646 14.4836 0.105326 0.572304 -3.020363
2011-12-12 09:06:43 51°24.623 2°46.637 14.4818 0.105326 0.572294 -3.020363
2011-12-12 09:06:48 51°24.637 2°46.627 14.4808 0.105326 0.572294 -3.020363
2011-12-12 09:06:52 51°24.648 2°46.62 14.4826 0.105326 0.572294 -3.020363
2011-12-12 09:06:58 51°24.665 2°46.608 14.4826 0.105326 0.572294 -3.020363
2011-12-12 09:07:03 51°24.679 2°46.598 14.4779 0.105223 0.571712 -3.020363
2011-12-12 09:07:08 51°24.694 2°46.589 14.4918 0.105223 0.571732 -3.020363
2011-12-12 09:07:12 51°24.705 2°46.582 14.5018 0.105326 0.572314 -3.020363
2011-12-12 09:07:18 51°24.723 2°46.572 14.4883 0.105223 0.571742 -3.020363
2011-12-12 09:07:23 51°24.736 2°46.563 14.4793 0.105223 0.571742 -3.020363
2011-12-12 09:07:28 51°24.75 2°46.555 14.4852 0.105326 0.572334 -3.020363
2011-12-12 09:07:32 51°24.762 2°46.547 14.4838 0.105223 0.571752 -3.020363
2011-12-12 09:07:38 51°24.778 2°46.536 14.5009 0.105326 0.572334 -3.020363
2011-12-12 09:07:43 51°24.792 2°46.528 14.4909 0.105326 0.572324 -3.020363
2011-12-12 09:07:48 51°24.806 2°46.519 14.4973 0.105326 0.572324 -3.020363
2011-12-12 09:07:52 51°24.817 2°46.512 14.4909 0.105326 0.572324 -3.020363
2011-12-12 09:07:58 51°24.834 2°46.5 14.4903 0.105326 0.572324 -3.020363
2011-12-12 09:08:03 51°24.848 2°46.491 14.5043 0.105223 0.571742 -3.020363
2011-12-12 09:08:08 51°24.863 2°46.482 14.51 0.105326 0.572343 -3.020363
2011-12-12 09:08:12 51°24.875 2°46.475 14.4936 0.105223 0.571772 -3.020363
2011-12-12 09:08:18 51°24.891 2°46.464 14.4948 0.105326 0.572373 -3.020363
2011-12-12 09:08:23 51°24.906 2°46.455 14.5063 0.105326 0.572373 -3.020363
2011-12-12 09:08:28 51°24.92 2°46.445 14.5014 0.105223 0.571782 -3.020363
2011-12-12 09:08:32 51°24.931 2°46.438 14.5121 0.105223 0.571792 -3.020363
2011-12-12 09:08:38 51°24.948 2°46.426 14.5073 0.105326 0.572363 -3.020363
2011-12-12 09:08:43 51°24.962 2°46.417 14.5128 0.105223 0.571792 -3.020363
2011-12-12 09:08:48 51°24.977 2°46.408 14.5137 0.105223 0.571792 -3.020363
2011-12-12 09:08:52 51°24.988 2°46.4 14.5045 0.105223 0.571792 -3.020363
2011-12-12 09:08:58 51°25.005 2°46.391 14.5145 0.105326 0.572383 -3.020363
2011-12-12 09:09:03 51°25.019 2°46.381 14.5208 0.105223 0.571812 -3.020363
2011-12-12 09:09:08 51°25.033 2°46.372 14.5115 0.105223 0.571812 -3.020363
2011-12-12 09:09:12 51°25.044 2°46.365 14.5179 0.105223 0.571812 -3.020363
2011-12-12 09:09:18 51°25.061 2°46.353 14.5245 0.105223 0.571812 -3.020363
2011-12-12 09:09:23 51°25.075 2°46.344 14.5107 0.105223 0.571812 -3.020363
2011-12-12 09:09:28 51°25.089 2°46.334 14.5154 0.105326 0.572413 -3.020363
2011-12-12 09:09:32 51°25.1 2°46.325 14.5252 0.105326 0.572403 -3.020363
2011-12-12 09:09:38 51°25.117 2°46.314 14.5168 0.105326 0.572403 -3.020363
2011-12-12 09:09:43 51°25.132 2°46.305 14.5396 0.105223 0.571842 -3.020363
2011-12-12 09:09:48 51°25.146 2°46.297 14.5359 0.105223 0.571861 -3.020363
2011-12-12 09:09:53 51°25.159 2°46.288 14.5188 0.105223 0.571861 -3.020363
2011-12-12 09:09:58 51°25.173 2°46.278 14.5321 0.105223 0.571852 -3.020363
2011-12-12 09:10:03 51°25.187 2°46.269 14.5258 0.105326 0.572443 -3.020363
2011-12-12 09:10:08 51°25.2 2°46.259 14.5347 0.105223 0.571852 -3.020363
2011-12-12 09:10:12 51°25.212 2°46.252 14.5399 0.105326 0.572423 -3.020363
2011-12-12 09:10:17 51°25.226 2°46.243 14.5241 0.105223 0.571861 -3.020363
2011-12-12 09:10:23 51°25.242 2°46.231 14.5294 0.105223 0.571861 -3.020363
2011-12-12 09:10:28 51°25.256 2°46.222 14.5356 0.105223 0.571852 -3.020363
2011-12-12 09:10:32 51°25.268 2°46.215 14.5299 0.105223 0.571861 -3.020363
2011-12-12 09:10:37 51°25.282 2°46.205 14.5377 0.105223 0.571871 -3.020363
2011-12-12 09:10:43 51°25.299 2°46.195 14.5395 0.105223 0.571871 -3.020363
2011-12-12 09:10:48 51°25.314 2°46.188 14.5314 0.105223 0.571881 -3.020363
2011-12-12 09:10:52 51°25.325 2°46.18 14.5408 0.105223 0.571881 -3.020363
2011-12-12 09:10:58 51°25.343 2°46.169 14.5366 0.105223 0.571891 -3.020363
2011-12-12 09:11:03 51°25.357 2°46.161 14.5361 0.105223 0.571891 -3.020363
2011-12-12 09:11:08 51°25.372 2°46.152 14.5556 0.105223 0.571911 -3.020363
2011-12-12 09:11:12 51°25.383 2°46.145 14.5562 0.105223 0.571921 -3.020363
2011-12-12 09:11:18 51°25.4 2°46.134 14.5401 0.105223 0.571931 -3.020363
2011-12-12 09:11:23 51°25.414 2°46.124 14.541 0.105223 0.571931 -3.020363
2011-12-12 09:11:28 51°25.428 2°46.115 14.5374 0.105223 0.571931 -3.020363
2011-12-12 09:11:32 51°25.439 2°46.107 14.5511 0.105223 0.571921 -3.020363
2011-12-12 09:11:38 51°25.457 2°46.097 14.5573 0.105223 0.571941 -3.020363
2011-12-12 09:11:43 51°25.471 2°46.089 14.5512 0.105223 0.571941 -3.020363
2011-12-12 09:11:48 51°25.485 2°46.079 14.56 0.105223 0.571941 -3.020363
2011-12-12 09:11:52 51°25.496 2°46.073 14.5555 0.105223 0.571941 -3.020363
2011-12-12 09:11:58 51°25.513 2°46.061 14.5573 0.105223 0.571941 -3.020363
2011-12-12 09:12:03 51°25.527 2°46.052 14.5503 0.105223 0.571941 -3.020363
2011-12-12 09:12:08 51°25.541 2°46.042 14.565 0.105223 0.571951 -3.020363
2011-12-12 09:12:12 51°25.553 2°46.035 14.5744 0.105223 0.571941 -3.020363
2011-12-12 09:12:18 51°25.569 2°46.025 14.5545 0.105223 0.571971 -3.020363
2011-12-12 09:12:23 51°25.583 2°46.015 14.5654 0.105223 0.571971 -3.020363
2011-12-12 09:12:28 51°25.597 2°46.006 14.5543 0.105223 0.571971 -3.020363
2011-12-12 09:12:33 51°25.611 2°45.997 14.5656 0.105223 0.571961 -3.020363
2011-12-12 09:12:38 51°25.625 2°45.989 14.5608 0.105223 0.571961 -3.020363
2011-12-12 09:12:43 51°25.638 2°45.979 14.5679 0.105223 0.571961 -3.020363
2011-12-12 09:12:48 51°25.653 2°45.971 14.5659 0.105223 0.571971 -3.020363
2011-12-12 09:12:52 51°25.664 2°45.963 14.5673 0.105223 0.571971 -3.020363
2011-12-12 09:12:58 51°25.681 2°45.952 14.5761 0.105223 0.571971 -3.020363
2011-12-12 09:13:03 51°25.695 2°45.943 14.57 0.105223 0.571981 -3.020363
2011-12-12 09:13:08 51°25.709 2°45.934 14.5635 0.105223 0.571991 -3.020363
2011-12-12 09:13:12 51°25.721 2°45.927 14.5795 0.105223 0.572001 -3.020363
2011-12-12 09:13:18 51°25.738 2°45.917 14.5824 0.105223 0.572011 -3.020363
2011-12-12 09:13:23 51°25.752 2°45.909 14.578 0.105223 0.572011 -3.020363
2011-12-12 09:13:28 51°25.766 2°45.901 14.5817 0.105223 0.572021 -3.020363
2011-12-12 09:13:33 51°25.779 2°45.893 14.5826 0.105223 0.572021 -3.020363
2011-12-12 09:13:38 51°25.794 2°45.885 14.5804 0.105223 0.572021 -3.020363
2011-12-12 09:13:43 51°25.807 2°45.876 14.578 0.105223 0.572021 -3.020363
2011-12-12 09:13:48 51°25.821 2°45.866 14.5833 0.105223 0.572011 -3.020363
2011-12-12 09:13:52 51°25.833 2°45.86 14.5825 0.105223 0.572011 -3.020363
2011-12-12 09:13:58 51°25.85 2°45.849 14.5813 0.105223 0.572011 -3.020363
2011-12-12 09:14:03 51°25.864 2°45.84 14.5855 0.105223 0.572011 -3.020363
2011-12-12 09:14:08 51°25.878 2°45.832 14.5926 0.105223 0.572021 -3.020363
2011-12-12 09:14:12 51°25.89 2°45.825 14.5853 0.105223 0.572031 -3.020363
2011-12-12 09:14:18 51°25.907 2°45.816 14.5853 0.105223 0.572041 -3.020363
2011-12-12 09:14:23 51°25.922 2°45.808 14.5965 0.105223 0.572041 -3.020363
2011-12-12 09:14:28 51°25.936 2°45.799 14.5988 0.105223 0.572051 -3.020363
2011-12-12 09:14:32 51°25.947 2°45.792 14.6027 0.105223 0.572071 -3.020363
2011-12-12 09:14:38 51°25.965 2°45.781 14.5922 0.105223 0.572071 -3.020363
2011-12-12 09:14:43 51°25.979 2°45.772 14.6038 0.105223 0.572081 -3.020363
2011-12-12 09:14:48 51°25.993 2°45.762 14.5942 0.105223 0.57209 -3.020363
2011-12-12 09:14:52 51°26.004 2°45.756 14.5942 0.105223 0.57209 -3.020363
2011-12-12 09:14:58 51°26.021 2°45.744 14.5993 0.105223 0.57209 -3.020363
2011-12-12 09:15:03 51°26.035 2°45.734 14.5945 0.105223 0.57209 -3.020363
2011-12-12 09:15:08 51°26.049 2°45.724 14.6111 0.105223 0.572081 -3.020363
2011-12-12 09:15:12 51°26.061 2°45.717 14.5987 0.105223 0.5721 -3.020363
2011-12-12 09:15:18 51°26.078 2°45.705 14.5993 0.105223 0.57211 -3.020363
2011-12-12 09:15:23 51°26.092 2°45.696 14.6093 0.105223 0.57211 -3.020363
2011-12-12 09:15:28 51°26.106 2°45.687 14.6056 0.105223 0.5721 -3.020363
2011-12-12 09:15:32 51°26.117 2°45.678 14.6219 0.105223 0.5721 -3.020363
2011-12-12 09:15:38 51°26.135 2°45.667 14.6241 0.105223 0.5721 -3.020363
2011-12-12 09:15:43 51°26.149 2°45.659 14.6169 0.105223 0.57211 -3.020363
2011-12-12 09:15:48 51°26.163 2°45.649 14.6115 0.105223 0.57211 -3.020363
2011-12-12 09:15:53 51°26.177 2°45.639 14.622 0.105223 0.57211 -3.020363
2011-12-12 09:15:58 51°26.191 2°45.63 14.6151 0.105223 0.57211 -3.020363
2011-12-12 09:16:03 51°26.205 2°45.621 14.6064 0.105223 0.57212 -3.020363
2011-12-12 09:16:08 51°26.219 2°45.61 14.6168 0.105223 0.57212 -3.020363
2011-12-12 09:16:12 51°26.23 2°45.603 14.6193 0.105223 0.57213 -3.020363
2011-12-12 09:16:18 51°26.247 2°45.591 14.6115 0.105223 0.57214 -3.020363
2011-12-12 09:16:23 51°26.261 2°45.583 14.6304 0.105223 0.57214 -3.020363
2011-12-12 09:16:28 51°26.275 2°45.575 14.626 0.105223 0.57214 -3.020363
2011-12-12 09:16:32 51°26.286 2°45.567 14.6335 0.105223 0.57215 -3.020363
2011-12-12 09:16:38 51°26.302 2°45.557 14.6151 0.105223 0.57216 -3.020363
2011-12-12 09:16:43 51°26.315 2°45.549 14.6302 0.105223 0.57217 -3.020363
2011-12-12 09:16:48 51°26.329 2°45.541 14.6271 0.105223 0.57215 -3.020363
2011-12-12 09:16:54 51°26.344 2°45.53 14.6255 0.105223 0.57215 -3.020363
2011-12-12 09:16:59 51°26.358 2°45.521 14.6302 0.105223 0.57215 -3.020363
2011-12-12 09:17:04 51°26.371 2°45.512 14.6205 0.105223 0.57215 -3.020363
2011-12-12 09:17:08 51°26.382 2°45.504 14.6407 0.105223 0.57213 -3.020363
2011-12-12 09:17:13 51°26.397 2°45.496 14.638 0.105223 0.57216 -3.020363
2011-12-12 09:17:18 51°26.411 2°45.486 14.6454 0.105223 0.57217 -3.020363
2011-12-12 09:17:23 51°26.424 2°45.477 14.629 0.105223 0.57217 -3.020363
2011-12-12 09:17:28 51°26.438 2°45.467 14.6319 0.105223 0.57218 -3.020363
2011-12-12 09:17:33 51°26.452 2°45.457 14.6433 0.105223 0.57219 -3.020363
2011-12-12 09:17:38 51°26.467 2°45.448 14.6416 0.105223 0.57221 -3.020363
2011-12-12 09:17:43 51°26.481 2°45.438 14.6447 0.105223 0.57221 -3.020363
2011-12-12 09:17:48 51°26.495 2°45.428 14.6487 0.105223 0.57222 -3.020363
2011-12-12 09:17:52 51°26.506 2°45.42 14.6342 0.105223 0.57222 -3.020363
2011-12-12 09:17:58 51°26.523 2°45.409 14.649 0.105223 0.57222 -3.020363
2011-12-12 09:18:03 51°26.537 2°45.4 14.6451 0.105223 0.57223 -3.020363
2011-12-12 09:18:08 51°26.55 2°45.392 14.6429 0.105223 0.57222 -3.020363
2011-12-12 09:18:12 51°26.562 2°45.384 14.6489 0.105223 0.57224 -3.020363
2011-12-12 09:18:18 51°26.579 2°45.374 14.6484 0.105223 0.57223 -3.020363
2011-12-12 09:18:23 51°26.593 2°45.365 14.6476 0.105223 0.57223 -3.020363
2011-12-12 09:18:28 51°26.607 2°45.357 14.6584 0.105223 0.57224 -3.020363
2011-12-12 09:18:32 51°26.619 2°45.35 14.6606 0.105223 0.57225 -3.020363
2011-12-12 09:18:38 51°26.635 2°45.338 14.6461 0.105121 0.571678 -3.020363
2011-12-12 09:18:43 51°26.649 2°45.328 14.6562 0.105223 0.57226 -3.020363
2011-12-12 09:18:48 51°26.663 2°45.319 14.6641 0.105223 0.57226 -3.020363
2011-12-12 09:18:52 51°26.675 2°45.312 14.6592 0.105223 0.57226 -3.020363
2011-12-12 09:18:58 51°26.691 2°45.301 14.6594 0.105223 0.57226 -3.020363
2011-12-12 09:19:03 51°26.706 2°45.291 14.6539 0.105223 0.57227 -3.020363
2011-12-12 09:19:08 51°26.719 2°45.281 14.6634 0.105223 0.57227 -3.020363
2011-12-12 09:19:12 51°26.731 2°45.274 14.6708 0.105223 0.57228 -3.020363
2011-12-12 09:19:18 51°26.748 2°45.261 14.6597 0.105223 0.5723 -3.020363
2011-12-12 09:19:23 51°26.761 2°45.251 14.664 0.105223 0.5723 -3.020363
2011-12-12 09:19:28 51°26.775 2°45.24 14.6599 0.105223 0.5723 -3.020363
2011-12-12 09:19:32 51°26.786 2°45.23 14.6677 0.105121 0.571708 -3.020363
2011-12-12 09:19:38 51°26.803 2°45.218 14.6674 0.105121 0.571708 -3.020363
2011-12-12 09:19:43 51°26.818 2°45.207 14.6777 0.105223 0.5723 -3.020363
2011-12-12 09:19:48 51°26.832 2°45.196 14.6762 0.105121 0.571718 -3.020363
2011-12-12 09:19:52 51°26.843 2°45.187 14.6638 0.105121 0.571718 -3.020363
2011-12-12 09:19:58 51°26.86 2°45.174 14.6805 0.105121 0.571738 -3.020363
2011-12-12 09:20:03 51°26.874 2°45.164 14.6676 0.105223 0.57232 -3.020363
2011-12-12 09:20:08 51°26.888 2°45.153 14.6799 0.105223 0.57233 -3.020363
2011-12-12 09:20:12 51°26.9 2°45.145 14.6713 0.105223 0.57233 -3.020363
2011-12-12 09:20:18 51°26.916 2°45.132 14.6845 0.105223 0.57234 -3.020363
2011-12-12 09:20:23 51°26.93 2°45.12 14.6836 0.105223 0.57234 -3.020363
2011-12-12 09:20:28 51°26.945 2°45.11 14.6866 0.105121 0.571758 -3.020363
2011-12-12 09:20:32 51°26.956 2°45.101 14.6744 0.105223 0.57235 -3.020363
2011-12-12 09:20:38 51°26.973 2°45.089 14.6915 0.105223 0.57236 -3.020363
2011-12-12 09:20:43 51°26.988 2°45.079 14.7006 0.105223 0.57237 -3.020363
2011-12-12 09:20:48 51°27.001 2°45.069 14.6941 0.105121 0.571787 -3.020363
2011-12-12 09:20:53 51°27.015 2°45.059 14.6949 0.105121 0.571787 -3.020363
2011-12-12 09:20:58 51°27.029 2°45.049 14.6832 0.105121 0.571768 -3.020363
2011-12-12 09:21:03 51°27.043 2°45.039 14.6885 0.105121 0.571758 -3.020363
2011-12-12 09:21:08 51°27.056 2°45.03 14.6783 0.105223 0.57234 -3.020363
2011-12-12 09:21:12 51°27.068 2°45.022 14.6868 0.105121 0.571758 -3.020363
2011-12-12 09:21:18 51°27.084 2°45.011 14.6906 0.105223 0.57235 -3.020363
2011-12-12 09:21:23 51°27.099 2°45 14.6941 0.105223 0.57235 -3.020363
2011-12-12 09:21:28 51°27.112 2°44.991 14.6851 0.105223 0.57236 -3.020363
2011-12-12 09:21:32 51°27.123 2°44.983 14.6882 0.105121 0.571778 -3.020363
2011-12-12 09:21:37 51°27.138 2°44.972 14.6939 0.105121 0.571778 -3.020363
2011-12-12 09:21:43 51°27.154 2°44.962 14.7012 0.105121 0.571797 -3.020363
2011-12-12 09:21:48 51°27.169 2°44.954 14.7026 0.105121 0.571817 -3.020363
2011-12-12 09:21:54 51°27.184 2°44.942 14.7126 0.105121 0.571817 -3.020363
2011-12-12 09:21:59 51°27.198 2°44.933 14.713 0.105121 0.571807 -3.020363
2011-12-12 09:22:04 51°27.211 2°44.924 14.6979 0.105121 0.571797 -3.020363
2011-12-12 09:22:09 51°27.225 2°44.916 14.7073 0.105121 0.571797 -3.020363
2011-12-12 09:22:14 51°27.237 2°44.906 14.7071 0.105121 0.571787 -3.020363
2011-12-12 09:22:19 51°27.251 2°44.897 14.7069 0.105223 0.57238 -3.020363
2011-12-12 09:22:24 51°27.265 2°44.888 14.7112 0.105223 0.57238 -3.020363
2011-12-12 09:22:29 51°27.279 2°44.878 14.7133 0.105121 0.571807 -3.020363
2011-12-12 09:22:34 51°27.292 2°44.868 14.7097 0.105223 0.57239 -3.020363
2011-12-12 09:22:39 51°27.306 2°44.859 14.7093 0.105121 0.571807 -3.020363
2011-12-12 09:22:44 51°27.321 2°44.849 14.7029 0.105121 0.571827 -3.020363
2011-12-12 09:22:48 51°27.332 2°44.84 14.7131 0.105121 0.571827 -3.020363
2011-12-12 09:22:53 51°27.346 2°44.831 14.7123 0.105121 0.571827 -3.020363
2011-12-12 09:22:58 51°27.361 2°44.821 14.7165 0.105121 0.571817 -3.020363
2011-12-12 09:23:03 51°27.375 2°44.811 14.7089 0.105121 0.571837 -3.020363
2011-12-12 09:23:08 51°27.39 2°44.801 14.7241 0.105121 0.571837 -3.020363
2011-12-12 09:23:12 51°27.401 2°44.793 14.7168 0.105121 0.571857 -3.020363
2011-12-12 09:23:18 51°27.418 2°44.781 14.7245 0.105121 0.571857 -3.020363
2011-12-12 09:23:23 51°27.433 2°44.771 14.718 0.105121 0.571857 -3.020363
2011-12-12 09:23:28 51°27.447 2°44.76 14.7245 0.105121 0.571867 -3.020363
2011-12-12 09:23:32 51°27.459 2°44.752 14.7175 0.105121 0.571877 -3.020363
2011-12-12 09:23:38 51°27.476 2°44.742 14.7306 0.105121 0.571897 -3.020363
2011-12-12 09:23:44 51°27.492 2°44.73 14.7297 0.105121 0.571897 -3.020363
2011-12-12 09:23:49 51°27.506 2°44.719 14.7286 0.105121 0.571887 -3.020363
2011-12-12 09:23:54 51°27.52 2°44.709 14.7305 0.105121 0.571887 -3.020363
2011-12-12 09:23:59 51°27.534 2°44.698 14.7303 0.105121 0.571887 -3.020363
2011-12-12 09:24:04 51°27.549 2°44.688 14.7414 0.105121 0.571887 -3.020363
2011-12-12 09:24:08 51°27.56 2°44.681 14.7355 0.105121 0.571887 -3.020363
2011-12-12 09:24:13 51°27.575 2°44.67 14.7458 0.105121 0.571887 -3.020363
2011-12-12 09:24:18 51°27.589 2°44.66 14.748 0.105223 0.572479 -3.020363
2011-12-12 09:24:23 51°27.603 2°44.649 14.734 0.105223 0.572479 -3.020363
2011-12-12 09:24:28 51°27.617 2°44.64 14.7364 0.105121 0.571917 -3.020363
2011-12-12 09:24:32 51°27.629 2°44.632 14.7511 0.105121 0.571917 -3.020363
2011-12-12 09:24:38 51°27.647 2°44.619 14.7353 0.105121 0.571927 -3.020363
2011-12-12 09:24:43 51°27.661 2°44.609 14.7497 0.105121 0.571927 -3.020363
2011-12-12 09:24:48 51°27.675 2°44.599 14.7404 0.105121 0.571927 -3.020363
2011-12-12 09:24:53 51°27.689 2°44.589 14.7409 0.105121 0.571927 -3.020363
2011-12-12 09:24:58 51°27.704 2°44.579 14.7541 0.105121 0.571937 -3.020363
2011-12-12 09:25:03 51°27.718 2°44.568 14.7578 0.105121 0.571967 -3.020363
2011-12-12 09:25:08 51°27.732 2°44.558 14.747 0.105121 0.571957 -3.020363
2011-12-12 09:25:12 51°27.743 2°44.551 14.7632 0.105121 0.571957 -3.020363
2011-12-12 09:25:18 51°27.76 2°44.539 14.7495 0.105121 0.571957 -3.020363
2011-12-12 09:25:23 51°27.774 2°44.53 14.755 0.105121 0.571957 -3.020363
2011-12-12 09:25:28 51°27.788 2°44.52 14.7455 0.105121 0.571957 -3.020363
2011-12-12 09:25:32 51°27.799 2°44.511 14.7522 0.105121 0.571967 -3.020363
2011-12-12 09:25:38 51°27.817 2°44.499 14.7531 0.105121 0.571967 -3.020363
2011-12-12 09:25:43 51°27.831 2°44.489 14.7635 0.105121 0.571967 -3.020363
2011-12-12 09:25:48 51°27.845 2°44.479 14.7574 0.105121 0.571967 -3.020363
2011-12-12 09:25:52 51°27.857 2°44.471 14.7583 0.105121 0.571967 -3.020363
2011-12-12 09:25:58 51°27.874 2°44.459 14.7544 0.105121 0.571977 -3.020363
2011-12-12 09:26:03 51°27.888 2°44.448 14.7634 0.105121 0.571987 -3.020363
2011-12-12 09:26:08 51°27.903 2°44.438 14.7699 0.105121 0.571997 -3.020363
2011-12-12 09:26:12 51°27.914 2°44.429 14.7693 0.105121 0.572007 -3.020363
2011-12-12 09:26:18 51°27.931 2°44.417 14.7693 0.105121 0.572007 -3.020363
2011-12-12 09:26:23 51°27.945 2°44.408 14.7753 0.105121 0.572007 -3.020363
2011-12-12 09:26:28 51°27.959 2°44.397 14.7781 0.105121 0.572007 -3.020363
2011-12-12 09:26:32 51°27.971 2°44.389 14.7647 0.105121 0.572007 -3.020363
2011-12-12 09:26:38 51°27.987 2°44.377 14.7795 0.105121 0.572017 -3.020363
2011-12-12 09:26:43 51°28.002 2°44.367 14.7787 0.105121 0.572017 -3.020363
2011-12-12 09:26:48 51°28.016 2°44.357 14.7664 0.105121 0.572017 -3.020363
2011-12-12 09:26:52 51°28.027 2°44.348 14.7702 0.105121 0.572017 -3.020363
2011-12-12 09:26:58 51°28.044 2°44.335 14.775 0.105121 0.572027 -3.020363
2011-12-12 09:27:03 51°28.059 2°44.326 14.7893 0.105121 0.572027 -3.020363
2011-12-12 09:27:08 51°28.073 2°44.317 14.7752 0.105121 0.572047 -3.020363
2011-12-12 09:27:13 51°28.088 2°44.308 14.7732 0.105121 0.572057 -3.020363
2011-12-12 09:27:18 51°28.102 2°44.299 14.796 0.105121 0.572057 -3.020363
2011-12-12 09:27:23 51°28.116 2°44.289 14.7834 0.105121 0.572057 -3.020363
2011-12-12 09:27:28 51°28.131 2°44.281 14.7779 0.105121 0.572077 -3.020363
2011-12-12 09:27:32 51°28.142 2°44.272 14.791 0.105121 0.572057 -3.020363
2011-12-12 09:27:38 51°28.159 2°44.261 14.7997 0.105121 0.572077 -3.020363
2011-12-12 09:27:43 51°28.173 2°44.25 14.7894 0.105121 0.572077 -3.020363
2011-12-12 09:27:48 51°28.187 2°44.242 14.7922 0.105121 0.572077 -3.020363
2011-12-12 09:27:52 51°28.199 2°44.234 14.7946 0.105121 0.572077 -3.020363
2011-12-12 09:27:58 51°28.215 2°44.222 14.7842 0.105121 0.572096 -3.020363
2011-12-12 09:28:03 51°28.229 2°44.213 14.7883 0.105121 0.572096 -3.020363
2011-12-12 09:28:08 51°28.243 2°44.204 14.7947 0.105121 0.572087 -3.020363
2011-12-12 09:28:12 51°28.255 2°44.197 14.8049 0.105121 0.572096 -3.020363
2011-12-12 09:28:18 51°28.272 2°44.185 14.7869 0.105121 0.572106 -3.020363
2011-12-12 09:28:23 51°28.286 2°44.176 14.8005 0.105121 0.572106 -3.020363
2011-12-12 09:28:28 51°28.3 2°44.165 14.8053 0.105121 0.572106 -3.020363
2011-12-12 09:28:32 51°28.312 2°44.158 14.8035 0.105121 0.572106 -3.020363
2011-12-12 09:28:38 51°28.329 2°44.145 14.7959 0.105121 0.572106 -3.020363
2011-12-12 09:28:43 51°28.343 2°44.135 14.7896 0.105121 0.572116 -3.020363
2011-12-12 09:28:48 51°28.357 2°44.126 14.8075 0.105121 0.572116 -3.020363
2011-12-12 09:28:52 51°28.368 2°44.117 14.8184 0.105121 0.572116 -3.020363
2011-12-12 09:28:58 51°28.386 2°44.105 14.8068 0.105121 0.572126 -3.020363
2011-12-12 09:29:04 51°28.402 2°44.094 14.8022 0.105121 0.572126 -3.020363
2011-12-12 09:29:08 51°28.413 2°44.086 14.8153 0.105121 0.572126 -3.020363
2011-12-12 09:29:13 51°28.427 2°44.075 14.804 0.105121 0.572126 -3.020363
2011-12-12 09:29:18 51°28.441 2°44.064 14.8106 0.105121 0.572126 -3.020363
2011-12-12 09:29:23 51°28.455 2°44.055 14.8208 0.105121 0.572126 -3.020363
2011-12-12 09:29:28 51°28.47 2°44.043 14.8153 0.105121 0.572146 -3.020363
2011-12-12 09:29:32 51°28.481 2°44.036 14.8128 0.105121 0.572146 -3.020363
2011-12-12 09:29:38 51°28.498 2°44.025 14.8167 0.105121 0.572146 -3.020363
2011-12-12 09:29:43 51°28.512 2°44.016 14.8164 0.105121 0.572166 -3.020363
2011-12-12 09:29:48 51°28.526 2°44.006 14.817 0.105121 0.572176 -3.020363
2011-12-12 09:29:52 51°28.537 2°43.998 14.8257 0.105121 0.572176 -3.020363
2011-12-12 09:29:58 51°28.554 2°43.986 14.8254 0.105121 0.572176 -3.020363
2011-12-12 09:30:03 51°28.568 2°43.977 14.8266 0.105121 0.572166 -3.020363
2011-12-12 09:30:08 51°28.582 2°43.968 14.8259 0.105121 0.572156 -3.020363
2011-12-12 09:30:12 51°28.593 2°43.96 14.821 0.105121 0.572166 -3.020363
2011-12-12 09:30:18 51°28.61 2°43.947 14.8373 0.105121 0.572166 -3.020363
2011-12-12 09:30:23 51°28.624 2°43.938 14.8291 0.105121 0.572166 -3.020363
2011-12-12 09:30:28 51°28.638 2°43.929 14.8276 0.105121 0.572176 -3.020363
2011-12-12 09:30:32 51°28.65 2°43.923 14.8414 0.105121 0.572186 -3.020363
2011-12-12 09:30:38 51°28.666 2°43.912 14.8273 0.105121 0.572196 -3.020363
2011-12-12 09:30:43 51°28.68 2°43.904 14.8577 0.105121 0.572206 -3.020363
2011-12-12 09:30:48 51°28.694 2°43.896 14.8251 0.105121 0.572216 -3.020363
2011-12-12 09:30:53 51°28.707 2°43.886 14.8298 0.105121 0.572216 -3.020363
2011-12-12 09:30:58 51°28.72 2°43.877 14.8365 0.105121 0.572206 -3.020363
2011-12-12 09:31:03 51°28.734 2°43.868 14.8358 0.105121 0.572206 -3.020363
2011-12-12 09:31:08 51°28.748 2°43.859 14.8504 0.105121 0.572196 -3.020363
2011-12-12 09:31:13 51°28.761 2°43.851 14.845 0.105121 0.572216 -3.020363
2011-12-12 09:31:18 51°28.775 2°43.84 14.8341 0.105121 0.572216 -3.020363
2011-12-12 09:31:23 51°28.788 2°43.83 14.8594 0.105121 0.572216 -3.020363
2011-12-12 09:31:28 51°28.803 2°43.821 14.8376 0.105121 0.572236 -3.020363
2011-12-12 09:31:32 51°28.814 2°43.813 14.8526 0.105121 0.572236 -3.020363
2011-12-12 09:31:38 51°28.831 2°43.802 14.8447 0.105121 0.572246 -3.020363
2011-12-12 09:31:43 51°28.845 2°43.791 14.8471 0.105121 0.572266 -3.020363
2011-12-12 09:31:48 51°28.86 2°43.782 14.8578 0.105121 0.572276 -3.020363
2011-12-12 09:31:52 51°28.871 2°43.774 14.8589 0.105121 0.572276 -3.020363
2011-12-12 09:31:58 51°28.889 2°43.761 14.8445 0.105121 0.572286 -3.020363
2011-12-12 09:32:03 51°28.903 2°43.751 14.8546 0.105121 0.572276 -3.020363
2011-12-12 09:32:08 51°28.917 2°43.741 14.8614 0.105121 0.572296 -3.020363
2011-12-12 09:32:12 51°28.929 2°43.733 14.8482 0.105121 0.572296 -3.020363
2011-12-12 09:32:18 51°28.946 2°43.722 14.8739 0.105121 0.572296 -3.020363
2011-12-12 09:32:23 51°28.961 2°43.714 14.854 0.105121 0.572296 -3.020363
2011-12-12 09:32:28 51°28.974 2°43.704 14.8709 0.105121 0.572296 -3.020363
2011-12-12 09:32:32 51°28.986 2°43.697 14.8807 0.105121 0.572316 -3.020363
2011-12-12 09:32:37 51°29 2°43.687 14.8711 0.105121 0.572306 -3.020363
2011-12-12 09:32:43 51°29.016 2°43.676 14.8645 0.105121 0.572316 -3.020363
2011-12-12 09:32:48 51°29.03 2°43.666 14.8674 0.105018 0.571723 -3.020363
2011-12-12 09:32:52 51°29.041 2°43.658 14.8875 0.105018 0.571723 -3.020363
2011-12-12 09:32:57 51°29.055 2°43.649 14.881 0.105121 0.572296 -3.020363
2011-12-12 09:33:03 51°29.072 2°43.636 14.8612 0.105018 0.571723 -3.020363
2011-12-12 09:33:08 51°29.086 2°43.625 14.874 0.105121 0.572306 -3.020363